Observation data for Lake McClellan 2NW on 04/23/2019      Previous  Date  Next       Current Mesonet Observations  Soil Data  Daily Summary Page  Observations in Plain Language
KMC5 230500Z 34011KT 12/11 A3012 RMK A01 T01200113  RH  096%=      5-min Rain = 0
KMC5 230501Z 34010KT 12/11 A3012 RMK A01 T01200114  RH  096%=      5-min Rain = 0
KMC5 230502Z 34010KT 12/11 A3012 RMK A01 T01200113  RH  096%=      5-min Rain = 0
KMC5 230503Z 34008KT 12/11 A3012 RMK A01 T01200113  RH  096%=      5-min Rain = 0
KMC5 230504Z 34008KT 12/11 A3012 RMK A01 T01200113  RH  096%=      5-min Rain = 0
KMC5 230505Z 34009KT 12/11 A3012 RMK A01 T01200114  RH  096%=      5-min Rain = 0
KMC5 230506Z 35009KT 12/11 A3012 RMK A01 T01200114  RH  096%=      5-min Rain = 0
KMC5 230507Z 35008KT 12/11 A3012 RMK A01 T01200113  RH  096%=      5-min Rain = 0
KMC5 230508Z 35009KT 12/11 A3012 RMK A01 T01200114  RH  096%=      5-min Rain = 0.01
KMC5 230509Z 35010KT 12/11 A3012 RMK A01 T01190113  RH  096%=      5-min Rain = 0
KMC5 230510Z 35009KT 12/11 A3012 RMK A01 T01190113  RH  096%=      5-min Rain = 0
KMC5 230511Z 35011KT 12/11 A3012 RMK A01 T01190113  RH  096%=      5-min Rain = 0
KMC5 230512Z 35011KT 12/11 A3012 RMK A01 T01190113  RH  096%=      5-min Rain = 0
KMC5 230513Z 35011KT 12/11 A3012 RMK A01 T01200113  RH  096%=      5-min Rain = 0.01
KMC5 230514Z 35011KT 12/11 A3012 RMK A01 T01200113  RH  095%=      5-min Rain = 0
KMC5 230515Z 35011KT 12/11 A3012 RMK A01 T01200113  RH  095%=      5-min Rain = 0
KMC5 230516Z 35011KT 12/11 A3012 RMK A01 T01200113  RH  095%=      5-min Rain = 0
KMC5 230517Z 35012KT 12/11 A3012 RMK A01 T01200113  RH  095%=      5-min Rain = 0
KMC5 230518Z 00012KT 12/11 A3012 RMK A01 T01200113  RH  095%=      5-min Rain = 0.01
KMC5 230519Z 36011KT 12/11 A3012 RMK A01 T01200113  RH  095%=      5-min Rain = 0
KMC5 230520Z 36013KT 12/11 A3012 RMK A01 T01200113  RH  095%=      5-min Rain = 0
KMC5 230521Z 36012KT 12/11 A3012 RMK A01 T01200113  RH  095%=      5-min Rain = 0
KMC5 230522Z 36012KT 12/11 A3012 RMK A01 T01200113  RH  095%=      5-min Rain = 0
KMC5 230523Z 00013KT 12/11 A3012 RMK A01 T01210113  RH  095%=      5-min Rain = 0
KMC5 230524Z 36013KT 12/11 A3011 RMK A01 T01210112  RH  095%=      5-min Rain = 0
KMC5 230525Z 00013KT 12/11 A3011 RMK A01 T01210112  RH  094%=      5-min Rain = 0
KMC5 230526Z 36012KT 12/11 A3011 RMK A01 T01210112  RH  094%=      5-min Rain = 0
KMC5 230527Z 36014KT 12/11 A3011 RMK A01 T01210112  RH  094%=      5-min Rain = 0
KMC5 230528Z 01013KT 12/11 A3011 RMK A01 T01210112  RH  094%=      5-min Rain = 0
KMC5 230529Z 00013KT 12/11 A3011 RMK A01 T01210113  RH  095%=      5-min Rain = 0
KMC5 230530Z 01012KT 12/11 A3011 RMK A01 T01210113  RH  095%=      5-min Rain = 0
KMC5 230531Z 01012KT 12/11 A3011 RMK A01 T01200113  RH  095%=      5-min Rain = 0
KMC5 230532Z 01012KT 12/11 A3011 RMK A01 T01200113  RH  096%=      5-min Rain = 0.01
KMC5 230533Z 01014KT 12/11 A3011 RMK A01 T01200114  RH  096%=      5-min Rain = 0
KMC5 230534Z 01014G19KT 12/11 A3011 RMK A01 T01200113  RH  095%=      5-min Rain = 0
KMC5 230535Z 01016KT 12/11 A3011 RMK A01 T01210112  RH  094%=      5-min Rain = 0
KMC5 230536Z 01015KT 12/11 A3011 RMK A01 T01220112  RH  094%=      5-min Rain = 0
KMC5 230537Z 02016KT 12/11 A3011 RMK A01 T01220112  RH  093%=      5-min Rain = 0
KMC5 230538Z 02015KT 12/11 A3011 RMK A01 T01220112  RH  093%=      5-min Rain = 0
KMC5 230539Z 03012KT 12/11 A3011 RMK A01 T01220113  RH  094%=      5-min Rain = 0.01
KMC5 230540Z 03014KT 12/11 A301 RMK A01 T01220113  RH  095%=      5-min Rain = 0
KMC5 230541Z 03015KT 12/11 A301 RMK A01 T01210113  RH  095%=      5-min Rain = 0
KMC5 230542Z 03015KT 12/11 A301 RMK A01 T01200113  RH  095%=      5-min Rain = 0
KMC5 230543Z 03015KT 12/11 A301 RMK A01 T01200114  RH  096%=      5-min Rain = 0
KMC5 230544Z 03015KT 12/11 A301 RMK A01 T01200114  RH  096%=      5-min Rain = 0
KMC5 230545Z 03014KT 12/11 A301 RMK A01 T01200113  RH  096%=      5-min Rain = 0.01
KMC5 230546Z 03013KT 12/11 A3011 RMK A01 T01200113  RH  096%=      5-min Rain = 0
KMC5 230547Z 03014KT 12/11 A3011 RMK A01 T01200113  RH  096%=      5-min Rain = 0
KMC5 230548Z 03013KT 12/11 A3011 RMK A01 T01200113  RH  096%=      5-min Rain = 0
KMC5 230549Z 03013KT 12/11 A3011 RMK A01 T01200113  RH  096%=      5-min Rain = 0
KMC5 230550Z 03014KT 12/11 A301 RMK A01 T01200113  RH  096%=      5-min Rain = 0
KMC5 230551Z 02014KT 12/11 A301 RMK A01 T01200113  RH  096%=      5-min Rain = 0
KMC5 230552Z 02015KT 12/11 A301 RMK A01 T01200114  RH  096%=      5-min Rain = 0
KMC5 230553Z 03016KT 12/11 A301 RMK A01 T01200114  RH  096%=      5-min Rain = 0
KMC5 230554Z 02013KT 12/11 A301 RMK A01 T01200114  RH  096%=      5-min Rain = 0.01
KMC5 230555Z 02015KT 12/11 A301 RMK A01 T01200114  RH  096%=      5-min Rain = 0
KMC5 230556Z 02015KT 12/11 A301 RMK A01 T01200114  RH  096%=      5-min Rain = 0
KMC5 230557Z 02015KT 12/11 A301 RMK A01 T01200114  RH  096%=      5-min Rain = 0
KMC5 230558Z 02012KT 12/11 A301 RMK A01 T01200113  RH  096%=      5-min Rain = 0
KMC5 230559Z 03013KT 12/11 A301 RMK A01 T01200114  RH  096%=      5-min Rain = 0
KMC5 230600Z 03015KT 12/11 A301 RMK A01 T01200114  RH  096%=      5-min Rain = 0
KMC5 230601Z 03013KT 12/11 A3011 RMK A01 T01200113  RH  096%=      5-min Rain = 0
KMC5 230602Z 03013KT 12/11 A3011 RMK A01 T01200113  RH  096%=      5-min Rain = 0
KMC5 230603Z 03014KT 12/11 A3011 RMK A01 T01200114  RH  096%=      5-min Rain = 0
KMC5 230604Z 03016KT 12/11 A3011 RMK A01 T01200113  RH  096%=      5-min Rain = 0
KMC5 230605Z 03013KT 12/11 A3011 RMK A01 T01200113  RH  096%=      5-min Rain = 0
KMC5 230606Z 03012KT 12/11 A3011 RMK A01 T01200113  RH  096%=      5-min Rain = 0
KMC5 230607Z 03012KT 12/11 A3011 RMK A01 T01200114  RH  096%=      5-min Rain = 0
KMC5 230608Z 03012KT 12/11 A3011 RMK A01 T01200114  RH  096%=      5-min Rain = 0
KMC5 230609Z 03012KT 12/11 A3011 RMK A01 T01200114  RH  096%=      5-min Rain = 0
KMC5 230610Z 03014KT 12/11 A3011 RMK A01 T01200114  RH  096%=      5-min Rain = 0
KMC5 230611Z 02015KT 12/11 A3011 RMK A01 T01200114  RH  096%=      5-min Rain = 0
KMC5 230612Z 02014KT 12/11 A3011 RMK A01 T01200114  RH  096%=      5-min Rain = 0
KMC5 230613Z 02013KT 12/11 A3011 RMK A01 T01200113  RH  096%=      5-min Rain = 0
KMC5 230614Z 02014KT 12/11 A3011 RMK A01 T01200114  RH  096%=      5-min Rain = 0
KMC5 230615Z 02015KT 12/11 A301 RMK A01 T01200114  RH  096%=      5-min Rain = 0
KMC5 230616Z 02014KT 12/11 A301 RMK A01 T01200114  RH  096%=      5-min Rain = 0
KMC5 230617Z 02013KT 12/11 A301 RMK A01 T01200114  RH  096%=      5-min Rain = 0
KMC5 230618Z 02014KT 12/11 A301 RMK A01 T01200114  RH  096%=      5-min Rain = 0
KMC5 230619Z 02014KT 12/11 A301 RMK A01 T01200114  RH  096%=      5-min Rain = 0
KMC5 230620Z 02015KT 12/11 A301 RMK A01 T01200114  RH  096%=      5-min Rain = 0
KMC5 230621Z 02016KT 12/11 A301 RMK A01 T01200114  RH  096%=      5-min Rain = 0
KMC5 230622Z 02016KT 12/11 A3009 RMK A01 T01200114  RH  096%=      5-min Rain = 0
KMC5 230623Z 02016KT 12/11 A3009 RMK A01 T01200113  RH  096%=      5-min Rain = 0
KMC5 230624Z 02014KT 12/11 A3009 RMK A01 T01200113  RH  096%=      5-min Rain = 0
KMC5 230625Z 02017KT 12/11 A3009 RMK A01 T01200113  RH  096%=      5-min Rain = 0
KMC5 230626Z 02016KT 12/11 A3009 RMK A01 T01200113  RH  096%=      5-min Rain = 0
KMC5 230627Z 02016KT 12/11 A3009 RMK A01 T01200113  RH  096%=      5-min Rain = 0
KMC5 230628Z 02016KT 12/11 A3009 RMK A01 T01200114  RH  096%=      5-min Rain = 0
KMC5 230629Z 01017KT 12/11 A3009 RMK A01 T01200113  RH  096%=      5-min Rain = 0
KMC5 230630Z 01017KT 12/11 A3009 RMK A01 T01200113  RH  096%=      5-min Rain = 0
KMC5 230631Z 01017KT 12/11 A3009 RMK A01 T01200113  RH  096%=      5-min Rain = 0
KMC5 230632Z 01014KT 12/11 A3009 RMK A01 T01200113  RH  096%=      5-min Rain = 0
KMC5 230633Z 01016KT 12/11 A3009 RMK A01 T01200113  RH  096%=      5-min Rain = 0
KMC5 230634Z 02016KT 12/11 A3009 RMK A01 T01200113  RH  096%=      5-min Rain = 0
KMC5 230635Z 01014KT 12/11 A3009 RMK A01 T01200113  RH  096%=      5-min Rain = 0
KMC5 230636Z 01013KT 12/11 A301 RMK A01 T01200114  RH  096%=      5-min Rain = 0
KMC5 230637Z 01015KT 12/11 A301 RMK A01 T01200113  RH  096%=      5-min Rain = 0
KMC5 230638Z 01015KT 12/11 A301 RMK A01 T01200113  RH  096%=      5-min Rain = 0
KMC5 230639Z 01015KT 12/11 A3009 RMK A01 T01200114  RH  096%=      5-min Rain = 0
KMC5 230640Z 01017KT 12/11 A3009 RMK A01 T01200113  RH  096%=      5-min Rain = 0
KMC5 230641Z 01016KT 12/11 A3009 RMK A01 T01200113  RH  096%=      5-min Rain = 0
KMC5 230642Z 01016KT 12/11 A3009 RMK A01 T01200113  RH  096%=      5-min Rain = 0
KMC5 230643Z 02017KT 12/11 A3009 RMK A01 T01200113  RH  095%=      5-min Rain = 0
KMC5 230644Z 01017KT 12/11 A3009 RMK A01 T01200113  RH  096%=      5-min Rain = 0
KMC5 230645Z 01015KT 12/11 A3009 RMK A01 T01200113  RH  096%=      5-min Rain = 0
KMC5 230646Z 02017KT 12/11 A3009 RMK A01 T01200113  RH  096%=      5-min Rain = 0
KMC5 230647Z 01015KT 12/11 A3009 RMK A01 T01200113  RH  096%=      5-min Rain = 0
KMC5 230648Z 01017KT 12/11 A3009 RMK A01 T01200113  RH  096%=      5-min Rain = 0
KMC5 230649Z 01015KT 12/11 A3009 RMK A01 T01200113  RH  096%=      5-min Rain = 0
KMC5 230650Z 01016KT 12/11 A3009 RMK A01 T01200113  RH  096%=      5-min Rain = 0
KMC5 230651Z 02013KT 12/11 A3009 RMK A01 T01200113  RH  096%=      5-min Rain = 0
KMC5 230652Z 01013KT 12/11 A3009 RMK A01 T01200113  RH  096%=      5-min Rain = 0
KMC5 230653Z 01016KT 12/11 A3009 RMK A01 T01200114  RH  096%=      5-min Rain = 0
KMC5 230654Z 01015KT 12/11 A3009 RMK A01 T01200113  RH  096%=      5-min Rain = 0
KMC5 230655Z 01017KT 12/11 A3009 RMK A01 T01200114  RH  096%=      5-min Rain = 0
KMC5 230656Z 01016KT 12/11 A3009 RMK A01 T01200113  RH  096%=      5-min Rain = 0
KMC5 230657Z 01015KT 12/11 A3009 RMK A01 T01200113  RH  096%=      5-min Rain = 0
KMC5 230658Z 02017KT 12/11 A3008 RMK A01 T01200113  RH  096%=      5-min Rain = 0
KMC5 230659Z 02017KT 12/11 A3008 RMK A01 T01200113  RH  096%=      5-min Rain = 0
KMC5 230700Z 02016KT 12/11 A3008 RMK A01 T01200113  RH  096%=      5-min Rain = 0
KMC5 230701Z 01016KT 12/11 A3008 RMK A01 T01200113  RH  096%=      5-min Rain = 0
KMC5 230702Z 02016KT 12/11 A3008 RMK A01 T01200113  RH  096%=      5-min Rain = 0
KMC5 230703Z 02015KT 12/11 A3008 RMK A01 T01200113  RH  095%=      5-min Rain = 0
KMC5 230704Z 02016KT 12/11 A3008 RMK A01 T01200113  RH  095%=      5-min Rain = 0
KMC5 230705Z 02016KT 12/11 A3008 RMK A01 T01200113  RH  095%=      5-min Rain = 0
KMC5 230706Z 02016KT 12/11 A3008 RMK A01 T01200113  RH  095%=      5-min Rain = 0
KMC5 230707Z 02015KT 12/11 A3008 RMK A01 T01200113  RH  095%=      5-min Rain = 0
KMC5 230708Z 02014KT 12/11 A3008 RMK A01 T01200113  RH  096%=      5-min Rain = 0
KMC5 230709Z 02015KT 12/11 A3008 RMK A01 T01200113  RH  096%=      5-min Rain = 0
KMC5 230710Z 02016KT 12/11 A3008 RMK A01 T01200113  RH  096%=      5-min Rain = 0
KMC5 230711Z 02017KT 12/11 A3008 RMK A01 T01200113  RH  096%=      5-min Rain = 0
KMC5 230712Z 02017KT 12/11 A3008 RMK A01 T01200113  RH  096%=      5-min Rain = 0
KMC5 230713Z 02016KT 12/11 A3007 RMK A01 T01200113  RH  095%=      5-min Rain = 0
KMC5 230714Z 02015KT 12/11 A3007 RMK A01 T01200113  RH  095%=      5-min Rain = 0
KMC5 230715Z 02016KT 12/11 A3007 RMK A01 T01200113  RH  095%=      5-min Rain = 0
KMC5 230716Z 02016KT 12/11 A3007 RMK A01 T01200113  RH  095%=      5-min Rain = 0
KMC5 230717Z 02014KT 12/11 A3007 RMK A01 T01200113  RH  095%=      5-min Rain = 0
KMC5 230718Z 02016KT 12/11 A3007 RMK A01 T01190113  RH  096%=      5-min Rain = 0
KMC5 230719Z 02016KT 12/11 A3007 RMK A01 T01190112  RH  096%=      5-min Rain = 0
KMC5 230720Z 02016KT 12/11 A3007 RMK A01 T01190112  RH  096%=      5-min Rain = 0
KMC5 230721Z 02016KT 12/11 A3007 RMK A01 T01190112  RH  096%=      5-min Rain = 0
KMC5 230722Z 02016KT 12/11 A3007 RMK A01 T01190112  RH  096%=      5-min Rain = 0
KMC5 230723Z 02016KT 12/11 A3007 RMK A01 T01190113  RH  096%=      5-min Rain = 0
KMC5 230724Z 02017KT 12/11 A3006 RMK A01 T01190113  RH  096%=      5-min Rain = 0
KMC5 230725Z 02016KT 12/11 A3006 RMK A01 T01190113  RH  096%=      5-min Rain = 0
KMC5 230726Z 02015KT 12/11 A3006 RMK A01 T01190112  RH  096%=      5-min Rain = 0
KMC5 230727Z 02017KT 12/11 A3006 RMK A01 T01190112  RH  096%=      5-min Rain = 0
KMC5 230728Z 02017KT 12/11 A3006 RMK A01 T01190112  RH  096%=      5-min Rain = 0
KMC5 230729Z 02015KT 12/11 A3006 RMK A01 T01190112  RH  096%=      5-min Rain = 0
KMC5 230730Z 02014KT 12/11 A3005 RMK A01 T01190113  RH  096%=      5-min Rain = 0
KMC5 230731Z 02016KT 12/11 A3005 RMK A01 T01190113  RH  096%=      5-min Rain = 0
KMC5 230732Z 02016KT 12/11 A3005 RMK A01 T01190113  RH  096%=      5-min Rain = 0
KMC5 230733Z 02015KT 12/11 A3005 RMK A01 T01190113  RH  096%=      5-min Rain = 0
KMC5 230734Z 02016KT 12/11 A3005 RMK A01 T01190113  RH  096%=      5-min Rain = 0
KMC5 230735Z 02017KT 12/11 A3005 RMK A01 T01180113  RH  096%=      5-min Rain = 0
KMC5 230736Z 02016KT 12/11 A3005 RMK A01 T01180113  RH  096%=      5-min Rain = 0
KMC5 230737Z 02014KT 12/11 A3005 RMK A01 T01180113  RH  096%=      5-min Rain = 0
KMC5 230738Z 02016KT 12/11 A3005 RMK A01 T01190113  RH  096%=      5-min Rain = 0
KMC5 230739Z 02015KT 12/11 A3005 RMK A01 T01180113  RH  096%=      5-min Rain = 0
KMC5 230740Z 02015KT 12/11 A3005 RMK A01 T01180113  RH  096%=      5-min Rain = 0
KMC5 230741Z 02014KT 12/11 A3005 RMK A01 T01180113  RH  096%=      5-min Rain = 0
KMC5 230742Z 02016KT 12/11 A3005 RMK A01 T01190113  RH  097%=      5-min Rain = 0
KMC5 230743Z 02016KT 12/11 A3006 RMK A01 T01190113  RH  096%=      5-min Rain = 0
KMC5 230744Z 02014KT 12/11 A3006 RMK A01 T01190113  RH  096%=      5-min Rain = 0
KMC5 230745Z 02013KT 12/11 A3006 RMK A01 T01190114  RH  096%=      5-min Rain = 0
KMC5 230746Z 02014KT 12/11 A3006 RMK A01 T01190113  RH  096%=      5-min Rain = 0
KMC5 230747Z 02015KT 12/11 A3006 RMK A01 T01190113  RH  096%=      5-min Rain = 0
KMC5 230748Z 02013KT 12/11 A3006 RMK A01 T01190113  RH  096%=      5-min Rain = 0
KMC5 230749Z 02012KT 12/11 A3006 RMK A01 T01190113  RH  096%=      5-min Rain = 0
KMC5 230750Z 02013KT 12/11 A3006 RMK A01 T01190114  RH  096%=      5-min Rain = 0
KMC5 230751Z 02013KT 12/11 A3006 RMK A01 T01190114  RH  097%=      5-min Rain = 0
KMC5 230752Z 02012KT 12/11 A3006 RMK A01 T01190114  RH  097%=      5-min Rain = 0
KMC5 230753Z 02014KT 12/11 A3006 RMK A01 T01190113  RH  097%=      5-min Rain = 0
KMC5 230754Z 02012KT 12/11 A3006 RMK A01 T01190114  RH  097%=      5-min Rain = 0
KMC5 230755Z 02012KT 12/11 A3006 RMK A01 T01200114  RH  097%=      5-min Rain = 0
KMC5 230756Z 02013KT 12/11 A3006 RMK A01 T01200114  RH  097%=      5-min Rain = 0
KMC5 230757Z 02012KT 12/11 A3006 RMK A01 T01190114  RH  097%=      5-min Rain = 0
KMC5 230758Z 02013G18KT 12/11 A3006 RMK A01 T01190114  RH  097%=      5-min Rain = 0
KMC5 230759Z 01014KT 12/12 A3005 RMK A01 T01190115  RH  097%=      5-min Rain = 0
KMC5 230800Z 01014KT 12/12 A3005 RMK A01 T01200115  RH  097%=      5-min Rain = 0
KMC5 230801Z 02015KT 12/12 A3005 RMK A01 T01200115  RH  097%=      5-min Rain = 0
KMC5 230802Z 02014KT 12/12 A3006 RMK A01 T01200115  RH  097%=      5-min Rain = 0
KMC5 230803Z 02015KT 12/12 A3006 RMK A01 T01200115  RH  097%=      5-min Rain = 0
KMC5 230804Z 02013KT 12/12 A3006 RMK A01 T01200115  RH  097%=      5-min Rain = 0
KMC5 230805Z 02013KT 12/12 A3006 RMK A01 T01200115  RH  097%=      5-min Rain = 0
KMC5 230806Z 02013KT 12/12 A3006 RMK A01 T01200115  RH  097%=      5-min Rain = 0
KMC5 230807Z 02014KT 12/12 A3006 RMK A01 T01200115  RH  097%=      5-min Rain = 0
KMC5 230808Z 02012KT 12/12 A3006 RMK A01 T01200115  RH  097%=      5-min Rain = 0
KMC5 230809Z 03012KT 12/12 A3006 RMK A01 T01210116  RH  097%=      5-min Rain = 0
KMC5 230810Z 03013KT 12/12 A3006 RMK A01 T01210116  RH  097%=      5-min Rain = 0
KMC5 230811Z 02013KT 12/12 A3006 RMK A01 T01210116  RH  097%=      5-min Rain = 0
KMC5 230812Z 03013KT 12/12 A3006 RMK A01 T01210116  RH  097%=      5-min Rain = 0
KMC5 230813Z 03013KT 12/12 A3006 RMK A01 T01210116  RH  097%=      5-min Rain = 0
KMC5 230814Z 03013KT 12/12 A3006 RMK A01 T01210116  RH  097%=      5-min Rain = 0
KMC5 230815Z 03013KT 12/12 A3006 RMK A01 T01210116  RH  097%=      5-min Rain = 0
KMC5 230816Z 03014KT 12/12 A3006 RMK A01 T01210116  RH  097%=      5-min Rain = 0
KMC5 230817Z 03012KT 12/12 A3006 RMK A01 T01210116  RH  097%=      5-min Rain = 0
KMC5 230818Z 02013KT 12/12 A3006 RMK A01 T01210116  RH  097%=      5-min Rain = 0
KMC5 230819Z 03012KT 12/12 A3006 RMK A01 T01210116  RH  097%=      5-min Rain = 0
KMC5 230820Z 03011KT 12/12 A3006 RMK A01 T01210116  RH  097%=      5-min Rain = 0
KMC5 230821Z 03013KT 12/12 A3006 RMK A01 T01210117  RH  097%=      5-min Rain = 0
KMC5 230822Z 03011KT 12/12 A3006 RMK A01 T01210117  RH  097%=      5-min Rain = 0
KMC5 230823Z 04013KT 12/12 A3006 RMK A01 T01210117  RH  097%=      5-min Rain = 0
KMC5 230824Z 03014KT 12/12 A3006 RMK A01 T01210117  RH  097%=      5-min Rain = 0
KMC5 230825Z 03013KT 12/12 A3006 RMK A01 T01210117  RH  097%=      5-min Rain = 0
KMC5 230826Z 03012KT 12/12 A3006 RMK A01 T01210117  RH  097%=      5-min Rain = 0
KMC5 230827Z 04014KT 12/12 A3006 RMK A01 T01220117  RH  097%=      5-min Rain = 0
KMC5 230828Z 03016KT 12/12 A3006 RMK A01 T01220117  RH  097%=      5-min Rain = 0
KMC5 230829Z 03013KT 12/12 A3006 RMK A01 T01220117  RH  097%=      5-min Rain = 0
KMC5 230830Z 04012KT 12/12 A3006 RMK A01 T01220117  RH  097%=      5-min Rain = 0
KMC5 230831Z 04013KT 12/12 A3006 RMK A01 T01220117  RH  097%=      5-min Rain = 0
KMC5 230832Z 04014KT 12/12 A3007 RMK A01 T01220117  RH  097%=      5-min Rain = 0
KMC5 230833Z 04015KT 12/12 A3006 RMK A01 T01220117  RH  097%=      5-min Rain = 0
KMC5 230834Z 05014KT 12/12 A3007 RMK A01 T01220117  RH  097%=      5-min Rain = 0
KMC5 230835Z 04012KT 12/12 A3007 RMK A01 T01220117  RH  097%=      5-min Rain = 0
KMC5 230836Z 04013KT 12/12 A3007 RMK A01 T01230117  RH  097%=      5-min Rain = 0
KMC5 230837Z 04013KT 12/12 A3007 RMK A01 T01220117  RH  097%=      5-min Rain = 0
KMC5 230838Z 04011KT 12/12 A3007 RMK A01 T01220117  RH  097%=      5-min Rain = 0
KMC5 230839Z 04011KT 12/12 A3007 RMK A01 T01230118  RH  097%=      5-min Rain = 0
KMC5 230840Z 05010KT 12/12 A3006 RMK A01 T01220117  RH  097%=      5-min Rain = 0
KMC5 230841Z 04012KT 12/12 A3006 RMK A01 T01220118  RH  097%=      5-min Rain = 0
KMC5 230842Z 04011KT 12/12 A3006 RMK A01 T01220118  RH  097%=      5-min Rain = 0
KMC5 230843Z 04013KT 12/12 A3006 RMK A01 T01230118  RH  097%=      5-min Rain = 0
KMC5 230844Z 04014KT 12/12 A3006 RMK A01 T01230118  RH  097%=      5-min Rain = 0
KMC5 230845Z 04013KT 12/12 A3006 RMK A01 T01220118  RH  097%=      5-min Rain = 0
KMC5 230846Z 04013KT 12/12 A3006 RMK A01 T01220117  RH  097%=      5-min Rain = 0
KMC5 230847Z 04014KT 12/12 A3006 RMK A01 T01220118  RH  097%=      5-min Rain = 0
KMC5 230848Z 04013KT 12/12 A3006 RMK A01 T01220117  RH  097%=      5-min Rain = 0
KMC5 230849Z 04014KT 12/12 A3006 RMK A01 T01220117  RH  097%=      5-min Rain = 0
KMC5 230850Z 04013KT 12/12 A3006 RMK A01 T01220117  RH  097%=      5-min Rain = 0
KMC5 230851Z 04012KT 12/12 A3006 RMK A01 T01220117  RH  097%=      5-min Rain = 0
KMC5 230852Z 04013KT 12/12 A3006 RMK A01 T01220117  RH  097%=      5-min Rain = 0
KMC5 230853Z 04013KT 12/12 A3006 RMK A01 T01220117  RH  097%=      5-min Rain = 0
KMC5 230854Z 04013KT 12/12 A3006 RMK A01 T01220117  RH  097%=      5-min Rain = 0
KMC5 230855Z 04013KT 12/12 A3006 RMK A01 T01220117  RH  097%=      5-min Rain = 0
KMC5 230856Z 04012KT 12/12 A3006 RMK A01 T01220117  RH  097%=      5-min Rain = 0
KMC5 230857Z 04012KT 12/12 A3006 RMK A01 T01220117  RH  097%=      5-min Rain = 0
KMC5 230858Z 04012KT 12/12 A3006 RMK A01 T01220117  RH  097%=      5-min Rain = 0
KMC5 230859Z 04012KT 12/12 A3006 RMK A01 T01220117  RH  097%=      5-min Rain = 0
KMC5 230900Z 04012KT 12/12 A3006 RMK A01 T01220117  RH  097%=      5-min Rain = 0
KMC5 230901Z 04013KT 12/12 A3006 RMK A01 T01220117  RH  097%=      5-min Rain = 0
KMC5 230902Z 04012KT 12/12 A3006 RMK A01 T01220117  RH  097%=      5-min Rain = 0
KMC5 230903Z 04013KT 12/12 A3006 RMK A01 T01220117  RH  096%=      5-min Rain = 0
KMC5 230904Z 04013KT 12/12 A3006 RMK A01 T01220117  RH  096%=      5-min Rain = 0
KMC5 230905Z 04012KT 12/12 A3006 RMK A01 T01220117  RH  096%=      5-min Rain = 0
KMC5 230906Z 04013KT 12/12 A3005 RMK A01 T01220117  RH  096%=      5-min Rain = 0
KMC5 230907Z 04015KT 12/12 A3005 RMK A01 T01220117  RH  096%=      5-min Rain = 0
KMC5 230908Z 04013KT 12/12 A3005 RMK A01 T01220117  RH  096%=      5-min Rain = 0
KMC5 230909Z 04013KT 12/12 A3005 RMK A01 T01220117  RH  096%=      5-min Rain = 0
KMC5 230910Z 04013KT 12/12 A3005 RMK A01 T01220117  RH  097%=      5-min Rain = 0
KMC5 230911Z 04013KT 12/12 A3005 RMK A01 T01220117  RH  097%=      5-min Rain = 0
KMC5 230912Z 04015KT 12/12 A3005 RMK A01 T01220117  RH  097%=      5-min Rain = 0
KMC5 230913Z 04015KT 12/12 A3005 RMK A01 T01220116  RH  096%=      5-min Rain = 0
KMC5 230914Z 04016KT 12/12 A3005 RMK A01 T01220116  RH  096%=      5-min Rain = 0
KMC5 230915Z 04014KT 12/12 A3005 RMK A01 T01220116  RH  096%=      5-min Rain = 0
KMC5 230916Z 04013KT 12/12 A3005 RMK A01 T01220116  RH  096%=      5-min Rain = 0
KMC5 230917Z 04014KT 12/12 A3005 RMK A01 T01220116  RH  096%=      5-min Rain = 0
KMC5 230918Z 04016KT 12/12 A3005 RMK A01 T01220116  RH  096%=      5-min Rain = 0
KMC5 230919Z 04014KT 12/12 A3005 RMK A01 T01220116  RH  096%=      5-min Rain = 0
KMC5 230920Z 04015KT 12/12 A3005 RMK A01 T01220116  RH  096%=      5-min Rain = 0
KMC5 230921Z 04014KT 12/12 A3005 RMK A01 T01220116  RH  096%=      5-min Rain = 0
KMC5 230922Z 04014KT 12/12 A3005 RMK A01 T01220116  RH  096%=      5-min Rain = 0
KMC5 230923Z 04013KT 12/12 A3005 RMK A01 T01220116  RH  096%=      5-min Rain = 0
KMC5 230924Z 04014KT 12/12 A3005 RMK A01 T01220116  RH  096%=      5-min Rain = 0
KMC5 230925Z 03013KT 12/12 A3005 RMK A01 T01220116  RH  096%=      5-min Rain = 0
KMC5 230926Z 04013KT 12/12 A3005 RMK A01 T01220116  RH  096%=      5-min Rain = 0
KMC5 230927Z 04013KT 12/12 A3005 RMK A01 T01220116  RH  096%=      5-min Rain = 0
KMC5 230928Z 04013KT 12/12 A3005 RMK A01 T01220116  RH  096%=      5-min Rain = 0
KMC5 230929Z 03011KT 12/12 A3005 RMK A01 T01220116  RH  096%=      5-min Rain = 0
KMC5 230930Z 03017KT 12/12 A3004 RMK A01 T01220116  RH  096%=      5-min Rain = 0
KMC5 230931Z 04017KT 12/12 A3004 RMK A01 T01220116  RH  096%=      5-min Rain = 0
KMC5 230932Z 03014KT 12/12 A3004 RMK A01 T01220115  RH  096%=      5-min Rain = 0
KMC5 230933Z 03015KT 12/12 A3004 RMK A01 T01220116  RH  096%=      5-min Rain = 0
KMC5 230934Z 03015KT 12/12 A3004 RMK A01 T01220116  RH  096%=      5-min Rain = 0
KMC5 230935Z 03016KT 12/12 A3004 RMK A01 T01220116  RH  096%=      5-min Rain = 0
KMC5 230936Z 03016KT 12/12 A3004 RMK A01 T01220115  RH  096%=      5-min Rain = 0
KMC5 230937Z 03015KT 12/12 A3004 RMK A01 T01220115  RH  096%=      5-min Rain = 0
KMC5 230938Z 03014KT 12/12 A3004 RMK A01 T01220116  RH  096%=      5-min Rain = 0
KMC5 230939Z 03016KT 12/12 A3003 RMK A01 T01220116  RH  096%=      5-min Rain = 0
KMC5 230940Z 03016KT 12/12 A3003 RMK A01 T01220115  RH  096%=      5-min Rain = 0
KMC5 230941Z 03017KT 12/12 A3003 RMK A01 T01220116  RH  096%=      5-min Rain = 0
KMC5 230942Z 03016KT 12/12 A3003 RMK A01 T01220115  RH  096%=      5-min Rain = 0
KMC5 230943Z 03016KT 12/12 A3003 RMK A01 T01220115  RH  096%=      5-min Rain = 0
KMC5 230944Z 03015KT 12/12 A3003 RMK A01 T01220115  RH  096%=      5-min Rain = 0
KMC5 230945Z 03017KT 12/12 A3003 RMK A01 T01220115  RH  096%=      5-min Rain = 0
KMC5 230946Z 03014KT 12/12 A3003 RMK A01 T01210115  RH  096%=      5-min Rain = 0
KMC5 230947Z 02016KT 12/12 A3003 RMK A01 T01220115  RH  096%=      5-min Rain = 0
KMC5 230948Z 02016KT 12/12 A3003 RMK A01 T01220115  RH  096%=      5-min Rain = 0
KMC5 230949Z 02013KT 12/12 A3003 RMK A01 T01220115  RH  096%=      5-min Rain = 0
KMC5 230950Z 03013KT 12/12 A3003 RMK A01 T01220115  RH  096%=      5-min Rain = 0
KMC5 230951Z 03015KT 12/12 A3003 RMK A01 T01220116  RH  096%=      5-min Rain = 0
KMC5 230952Z 03015KT 12/12 A3004 RMK A01 T01210115  RH  096%=      5-min Rain = 0
KMC5 230953Z 03014KT 12/12 A3004 RMK A01 T01220115  RH  096%=      5-min Rain = 0
KMC5 230954Z 02016KT 12/12 A3004 RMK A01 T01220115  RH  096%=      5-min Rain = 0
KMC5 230955Z 02016KT 12/12 A3004 RMK A01 T01220115  RH  096%=      5-min Rain = 0
KMC5 230956Z 03017KT 12/12 A3004 RMK A01 T01220115  RH  096%=      5-min Rain = 0
KMC5 230957Z 03015KT 12/12 A3004 RMK A01 T01220115  RH  096%=      5-min Rain = 0
KMC5 230958Z 02014KT 12/12 A3004 RMK A01 T01220115  RH  095%=      5-min Rain = 0
KMC5 230959Z 03013KT 12/12 A3004 RMK A01 T01220115  RH  095%=      5-min Rain = 0
KMC5 231000Z 03015KT 12/12 A3004 RMK A01 T01220115  RH  095%=      5-min Rain = 0
KMC5 231001Z 03016KT 12/12 A3005 RMK A01 T01220115  RH  095%=      5-min Rain = 0
KMC5 231002Z 03013KT 12/12 A3005 RMK A01 T01220115  RH  095%=      5-min Rain = 0
KMC5 231003Z 03014KT 12/12 A3005 RMK A01 T01220115  RH  095%=      5-min Rain = 0
KMC5 231004Z 03014KT 12/12 A3005 RMK A01 T01220115  RH  095%=      5-min Rain = 0
KMC5 231005Z 04015KT 12/12 A3005 RMK A01 T01220115  RH  095%=      5-min Rain = 0
KMC5 231006Z 04013KT 12/12 A3005 RMK A01 T01220115  RH  095%=      5-min Rain = 0
KMC5 231007Z 03015KT 12/12 A3005 RMK A01 T01220115  RH  095%=      5-min Rain = 0
KMC5 231008Z 03015KT 12/12 A3005 RMK A01 T01220115  RH  095%=      5-min Rain = 0
KMC5 231009Z 03012KT 12/11 A3005 RMK A01 T01220114  RH  095%=      5-min Rain = 0
KMC5 231010Z 03010KT 12/12 A3005 RMK A01 T01230115  RH  095%=      5-min Rain = 0
KMC5 231011Z 04012KT 12/12 A3005 RMK A01 T01230116  RH  095%=      5-min Rain = 0
KMC5 231012Z 03014KT 12/12 A3005 RMK A01 T01230116  RH  095%=      5-min Rain = 0
KMC5 231013Z 03013KT 12/12 A3005 RMK A01 T01230115  RH  095%=      5-min Rain = 0
KMC5 231014Z 03014KT 12/12 A3005 RMK A01 T01230115  RH  095%=      5-min Rain = 0
KMC5 231015Z 03013KT 12/12 A3005 RMK A01 T01230115  RH  095%=      5-min Rain = 0
KMC5 231016Z 03013KT 12/12 A3005 RMK A01 T01220115  RH  095%=      5-min Rain = 0
KMC5 231017Z 03013KT 12/12 A3005 RMK A01 T01230115  RH  095%=      5-min Rain = 0
KMC5 231018Z 03013KT 12/12 A3005 RMK A01 T01220115  RH  095%=      5-min Rain = 0
KMC5 231019Z 03013KT 12/12 A3005 RMK A01 T01220115  RH  095%=      5-min Rain = 0
KMC5 231020Z 03013KT 12/12 A3005 RMK A01 T01230116  RH  095%=      5-min Rain = 0
KMC5 231021Z 02014KT 12/12 A3005 RMK A01 T01220115  RH  095%=      5-min Rain = 0
KMC5 231022Z 02014KT 12/12 A3005 RMK A01 T01230115  RH  095%=      5-min Rain = 0
KMC5 231023Z 02013KT 12/12 A3005 RMK A01 T01230115  RH  095%=      5-min Rain = 0
KMC5 231024Z 02013KT 12/12 A3005 RMK A01 T01230116  RH  095%=      5-min Rain = 0
KMC5 231025Z 02014KT 12/12 A3004 RMK A01 T01220115  RH  096%=      5-min Rain = 0
KMC5 231026Z 02014KT 12/12 A3004 RMK A01 T01230116  RH  096%=      5-min Rain = 0
KMC5 231027Z 03015KT 12/12 A3004 RMK A01 T01230116  RH  096%=      5-min Rain = 0
KMC5 231028Z 03013KT 12/12 A3004 RMK A01 T01220116  RH  096%=      5-min Rain = 0
KMC5 231029Z 03014KT 12/12 A3004 RMK A01 T01230116  RH  096%=      5-min Rain = 0
KMC5 231030Z 03014KT 12/12 A3004 RMK A01 T01220116  RH  096%=      5-min Rain = 0
KMC5 231031Z 03014KT 12/12 A3004 RMK A01 T01220115  RH  096%=      5-min Rain = 0
KMC5 231032Z 03013KT 12/12 A3004 RMK A01 T01220116  RH  096%=      5-min Rain = 0
KMC5 231033Z 03016KT 12/12 A3004 RMK A01 T01220116  RH  096%=      5-min Rain = 0
KMC5 231034Z 03015KT 12/12 A3004 RMK A01 T01220116  RH  096%=      5-min Rain = 0
KMC5 231035Z 03017KT 12/12 A3004 RMK A01 T01220116  RH  096%=      5-min Rain = 0
KMC5 231036Z 02017KT 12/12 A3004 RMK A01 T01220116  RH  096%=      5-min Rain = 0
KMC5 231037Z 02017KT 12/12 A3004 RMK A01 T01220115  RH  096%=      5-min Rain = 0
KMC5 231038Z 03015KT 12/12 A3004 RMK A01 T01220115  RH  096%=      5-min Rain = 0
KMC5 231039Z 02015KT 12/12 A3004 RMK A01 T01220116  RH  096%=      5-min Rain = 0
KMC5 231040Z 02018KT 12/12 A3004 RMK A01 T01220116  RH  096%=      5-min Rain = 0
KMC5 231041Z 02018KT 12/12 A3004 RMK A01 T01210115  RH  096%=      5-min Rain = 0
KMC5 231042Z 02018KT 12/12 A3004 RMK A01 T01210115  RH  096%=      5-min Rain = 0
KMC5 231043Z 02017KT 12/11 A3004 RMK A01 T01200114  RH  096%=      5-min Rain = 0
KMC5 231044Z 02016KT 12/12 A3004 RMK A01 T01200115  RH  096%=      5-min Rain = 0
KMC5 231045Z 02014KT 12/12 A3004 RMK A01 T01200115  RH  096%=      5-min Rain = 0
KMC5 231046Z 01014KT 12/12 A3004 RMK A01 T01200115  RH  097%=      5-min Rain = 0
KMC5 231047Z 02016KT 12/11 A3004 RMK A01 T01190114  RH  097%=      5-min Rain = 0
KMC5 231048Z 02018KT 12/11 A3005 RMK A01 T01190113  RH  097%=      5-min Rain = 0
KMC5 231049Z 02015KT 12/11 A3005 RMK A01 T01180113  RH  097%=      5-min Rain = 0
KMC5 231050Z 01015KT 12/11 A3005 RMK A01 T01170113  RH  097%=      5-min Rain = 0
KMC5 231051Z 01017KT 12/11 A3005 RMK A01 T01170113  RH  097%=      5-min Rain = 0
KMC5 231052Z 02017KT 12/11 A3005 RMK A01 T01160112  RH  097%=      5-min Rain = 0.01
KMC5 231053Z 02016KT 12/11 A3005 RMK A01 T01160112  RH  097%=      5-min Rain = 0
KMC5 231054Z 02016KT 12/11 A3005 RMK A01 T01160112  RH  097%=      5-min Rain = 0
KMC5 231055Z 02013KT 12/11 A3005 RMK A01 T01160112  RH  097%=      5-min Rain = 0
KMC5 231056Z 01014KT 12/11 A3005 RMK A01 T01160112  RH  097%=      5-min Rain = 0
KMC5 231057Z 02015KT 12/11 A3006 RMK A01 T01160112  RH  097%=      5-min Rain = 0
KMC5 231058Z 02019KT 12/11 A3005 RMK A01 T01150112  RH  097%=      5-min Rain = 0
KMC5 231059Z 02017KT 12/11 A3006 RMK A01 T01150111  RH  097%=      5-min Rain = 0
KMC5 231100Z 02016KT 12/11 A3006 RMK A01 T01150111  RH  097%=      5-min Rain = 0
KMC5 231101Z 01012KT 12/11 A3006 RMK A01 T01150111  RH  097%=      5-min Rain = 0
KMC5 231102Z 01013KT 12/11 A3006 RMK A01 T01150111  RH  098%=      5-min Rain = 0
KMC5 231103Z 01017KT 12/11 A3006 RMK A01 T01150111  RH  098%=      5-min Rain = 0
KMC5 231104Z 01016KT 11/11 A3006 RMK A01 T01140111  RH  098%=      5-min Rain = 0
KMC5 231105Z 02015KT 11/11 A3006 RMK A01 T01140110  RH  097%=      5-min Rain = 0
KMC5 231106Z 01013KT 11/11 A3006 RMK A01 T01140111  RH  098%=      5-min Rain = 0
KMC5 231107Z 01016KT 11/11 A3006 RMK A01 T01140111  RH  098%=      5-min Rain = 0.01
KMC5 231108Z 01014KT 11/11 A3006 RMK A01 T01140110  RH  097%=      5-min Rain = 0
KMC5 231109Z 01012KT 11/11 A3006 RMK A01 T01140110  RH  097%=      5-min Rain = 0
KMC5 231110Z 01015KT 11/11 A3006 RMK A01 T01140110  RH  098%=      5-min Rain = 0
KMC5 231111Z 01016KT 11/11 A3006 RMK A01 T01140110  RH  097%=      5-min Rain = 0
KMC5 231112Z 02015KT 11/11 A3006 RMK A01 T01130109  RH  097%=      5-min Rain = 0
KMC5 231113Z 02014KT 11/11 A3006 RMK A01 T01130109  RH  097%=      5-min Rain = 0
KMC5 231114Z 02013KT 11/11 A3006 RMK A01 T01130110  RH  097%=      5-min Rain = 0
KMC5 231115Z 01015KT 11/11 A3006 RMK A01 T01130109  RH  097%=      5-min Rain = 0
KMC5 231116Z 02014KT 11/11 A3007 RMK A01 T01130109  RH  097%=      5-min Rain = 0
KMC5 231117Z 01014KT 11/11 A3007 RMK A01 T01130109  RH  097%=      5-min Rain = 0
KMC5 231118Z 01014KT 11/11 A3007 RMK A01 T01130109  RH  097%=      5-min Rain = 0
KMC5 231119Z 01012KT 11/11 A3007 RMK A01 T01130109  RH  097%=      5-min Rain = 0
KMC5 231120Z 01015KT 11/11 A3007 RMK A01 T01130109  RH  097%=      5-min Rain = 0.01
KMC5 231121Z 02016KT 11/11 A3007 RMK A01 T01130108  RH  097%=      5-min Rain = 0
KMC5 231122Z 01014KT 11/11 A3007 RMK A01 T01120107  RH  097%=      5-min Rain = 0
KMC5 231123Z 01016KT 11/11 A3007 RMK A01 T01120107  RH  097%=      5-min Rain = 0
KMC5 231124Z 02013KT 11/11 A3007 RMK A01 T01110107  RH  097%=      5-min Rain = 0
KMC5 231125Z 01012KT 11/11 A3007 RMK A01 T01120107  RH  097%=      5-min Rain = 0
KMC5 231126Z 02013KT 11/11 A3007 RMK A01 T01120107  RH  097%=      5-min Rain = 0
KMC5 231127Z 02013KT 11/11 A3007 RMK A01 T01120107  RH  097%=      5-min Rain = 0
KMC5 231128Z 01014KT 11/11 A3007 RMK A01 T01110107  RH  097%=      5-min Rain = 0
KMC5 231129Z 02013KT 11/11 A3007 RMK A01 T01110107  RH  097%=      5-min Rain = 0
KMC5 231130Z 01012KT 11/11 A3007 RMK A01 T01110107  RH  097%=      5-min Rain = 0
KMC5 231131Z 01012KT 11/11 A3007 RMK A01 T01110107  RH  097%=      5-min Rain = 0
KMC5 231132Z 01014KT 11/11 A3007 RMK A01 T01110107  RH  097%=      5-min Rain = 0
KMC5 231133Z 02014KT 11/11 A3007 RMK A01 T01110107  RH  097%=      5-min Rain = 0
KMC5 231134Z 02014KT 11/11 A3007 RMK A01 T01110106  RH  097%=      5-min Rain = 0.01
KMC5 231135Z 02013KT 11/11 A3007 RMK A01 T01110106  RH  097%=      5-min Rain = 0
KMC5 231136Z 02016KT 11/11 A3007 RMK A01 T01110106  RH  097%=      5-min Rain = 0
KMC5 231137Z 02013G18KT 11/11 A3007 RMK A01 T01100106  RH  097%=      5-min Rain = 0
KMC5 231138Z 02015KT 11/11 A3007 RMK A01 T01100106  RH  097%=      5-min Rain = 0
KMC5 231139Z 02015KT 11/11 A3007 RMK A01 T01100106  RH  097%=      5-min Rain = 0
KMC5 231140Z 02013KT 11/11 A3007 RMK A01 T01100106  RH  097%=      5-min Rain = 0.01
KMC5 231141Z 02014KT 11/11 A3007 RMK A01 T01100106  RH  097%=      5-min Rain = 0
KMC5 231142Z 02014KT 11/11 A3007 RMK A01 T01100106  RH  097%=      5-min Rain = 0
KMC5 231143Z 02014KT 11/11 A3007 RMK A01 T01100106  RH  097%=      5-min Rain = 0
KMC5 231144Z 02013KT 11/11 A3007 RMK A01 T01100106  RH  097%=      5-min Rain = 0
KMC5 231145Z 02013G18KT 11/11 A3007 RMK A01 T01100106  RH  097%=      5-min Rain = 0
KMC5 231146Z 02015KT 11/11 A3007 RMK A01 T01100106  RH  097%=      5-min Rain = 0
KMC5 231147Z 02015KT 11/11 A3007 RMK A01 T01100106  RH  097%=      5-min Rain = 0
KMC5 231148Z 02016KT 11/11 A3007 RMK A01 T01100106  RH  097%=      5-min Rain = 0
KMC5 231149Z 02015KT 11/11 A3007 RMK A01 T01100106  RH  097%=      5-min Rain = 0
KMC5 231150Z 02012KT 11/11 A3007 RMK A01 T01100106  RH  097%=      5-min Rain = 0
KMC5 231151Z 02013KT 11/11 A3007 RMK A01 T01100106  RH  098%=      5-min Rain = 0.01
KMC5 231152Z 02015KT 11/11 A3007 RMK A01 T01100106  RH  098%=      5-min Rain = 0
KMC5 231153Z 02014KT 11/11 A3007 RMK A01 T01100106  RH  098%=      5-min Rain = 0
KMC5 231154Z 02014KT 11/11 A3007 RMK A01 T01100106  RH  097%=      5-min Rain = 0
KMC5 231155Z 02014KT 11/11 A3007 RMK A01 T01100106  RH  097%=      5-min Rain = 0
KMC5 231156Z 02015KT 11/11 A3007 RMK A01 T01100106  RH  097%=      5-min Rain = 0
KMC5 231157Z 02014KT 11/11 A3007 RMK A01 T01100106  RH  097%=      5-min Rain = 0
KMC5 231158Z 02016KT 11/11 A3007 RMK A01 T01100106  RH  098%=      5-min Rain = 0
KMC5 231159Z 02016KT 11/11 A3007 RMK A01 T01100106  RH  097%=      5-min Rain = 0
KMC5 231200Z 02012KT 11/11 A3007 RMK A01 T01100106  RH  098%=      5-min Rain = 0.01
KMC5 231201Z 02014KT 11/11 A3007 RMK A01 T01100106  RH  098%=      5-min Rain = 0
KMC5 231202Z 03015KT 11/11 A3007 RMK A01 T01100106  RH  098%=      5-min Rain = 0
KMC5 231203Z 03015KT 11/11 A3007 RMK A01 T01100106  RH  098%=      5-min Rain = 0
KMC5 231204Z 03013KT 11/11 A3007 RMK A01 T01100106  RH  098%=      5-min Rain = 0
KMC5 231205Z 03014KT 11/11 A3007 RMK A01 T01100106  RH  098%=      5-min Rain = 0
KMC5 231206Z 02015KT 11/11 A3007 RMK A01 T01100106  RH  098%=      5-min Rain = 0
KMC5 231207Z 02016KT 11/11 A3008 RMK A01 T01100106  RH  098%=      5-min Rain = 0
KMC5 231208Z 02016KT 11/11 A3008 RMK A01 T01100106  RH  098%=      5-min Rain = 0
KMC5 231209Z 02016KT 11/11 A3008 RMK A01 T01100106  RH  098%=      5-min Rain = 0
KMC5 231210Z 02015KT 11/11 A3008 RMK A01 T01100106  RH  098%=      5-min Rain = 0
KMC5 231211Z 02014KT 11/11 A3008 RMK A01 T01100106  RH  098%=      5-min Rain = 0
KMC5 231212Z 03014KT 11/11 A3008 RMK A01 T01100106  RH  098%=      5-min Rain = 0
KMC5 231213Z 03013KT 11/11 A3008 RMK A01 T01100107  RH  098%=      5-min Rain = 0
KMC5 231214Z 02013KT 11/11 A3008 RMK A01 T01100107  RH  098%=      5-min Rain = 0
KMC5 231215Z 02014KT 11/11 A3008 RMK A01 T01100107  RH  098%=      5-min Rain = 0
KMC5 231216Z 03014KT 11/11 A3008 RMK A01 T01100107  RH  098%=      5-min Rain = 0
KMC5 231217Z 03011KT 11/11 A3009 RMK A01 T01100107  RH  098%=      5-min Rain = 0
KMC5 231218Z 03012KT 11/11 A3009 RMK A01 T01100107  RH  098%=      5-min Rain = 0
KMC5 231219Z 03011KT 11/11 A3009 RMK A01 T01100107  RH  098%=      5-min Rain = 0.01
KMC5 231220Z 03014KT 11/11 A3009 RMK A01 T01100107  RH  098%=      5-min Rain = 0
KMC5 231221Z 02015KT 11/11 A3009 RMK A01 T01100107  RH  098%=      5-min Rain = 0
KMC5 231222Z 02015KT 11/11 A3009 RMK A01 T01100107  RH  098%=      5-min Rain = 0
KMC5 231223Z 02013KT 11/11 A3009 RMK A01 T01100107  RH  098%=      5-min Rain = 0
KMC5 231224Z 03011KT 11/11 A3009 RMK A01 T01100107  RH  098%=      5-min Rain = 0
KMC5 231225Z 02013KT 11/11 A3009 RMK A01 T01110107  RH  098%=      5-min Rain = 0
KMC5 231226Z 03011KT 11/11 A301 RMK A01 T01100107  RH  098%=      5-min Rain = 0
KMC5 231227Z 03013KT 11/11 A301 RMK A01 T01100107  RH  098%=      5-min Rain = 0
KMC5 231228Z 03012KT 11/11 A301 RMK A01 T01100107  RH  098%=      5-min Rain = 0
KMC5 231229Z 03011KT 11/11 A301 RMK A01 T01100107  RH  098%=      5-min Rain = 0
KMC5 231230Z 03013KT 11/11 A301 RMK A01 T01110107  RH  098%=      5-min Rain = 0
KMC5 231231Z 03011KT 11/11 A301 RMK A01 T01110107  RH  098%=      5-min Rain = 0
KMC5 231232Z 03011KT 11/11 A301 RMK A01 T01110107  RH  098%=      5-min Rain = 0
KMC5 231233Z 03011KT 11/11 A301 RMK A01 T01110107  RH  098%=      5-min Rain = 0
KMC5 231234Z 03014KT 11/11 A301 RMK A01 T01110107  RH  098%=      5-min Rain = 0
KMC5 231235Z 03014KT 11/11 A301 RMK A01 T01110107  RH  098%=      5-min Rain = 0
KMC5 231236Z 02012KT 11/11 A301 RMK A01 T01100107  RH  098%=      5-min Rain = 0.01
KMC5 231237Z 02012KT 11/11 A3011 RMK A01 T01100107  RH  098%=      5-min Rain = 0
KMC5 231238Z 03014KT 11/11 A3011 RMK A01 T01100107  RH  098%=      5-min Rain = 0
KMC5 231239Z 02016KT 11/11 A3011 RMK A01 T01100106  RH  098%=      5-min Rain = 0
KMC5 231240Z 03015KT 11/11 A3011 RMK A01 T01100106  RH  097%=      5-min Rain = 0
KMC5 231241Z 02019KT 11/11 A3011 RMK A01 T01090105  RH  097%=      5-min Rain = 0
KMC5 231242Z 02015KT 11/10 A3011 RMK A01 T01080103  RH  097%=      5-min Rain = 0
KMC5 231243Z 03015KT 11/10 A3011 RMK A01 T01070102  RH  097%=      5-min Rain = 0.01
KMC5 231244Z 02016KT 11/10 A3011 RMK A01 T01070102  RH  097%=      5-min Rain = 0
KMC5 231245Z 03017KT 11/10 A3011 RMK A01 T01060101  RH  097%=      5-min Rain = 0
KMC5 231246Z 03014KT 11/10 A3011 RMK A01 T01060101  RH  097%=      5-min Rain = 0
KMC5 231247Z 03015KT 11/10 A3011 RMK A01 T01060101  RH  097%=      5-min Rain = 0
KMC5 231248Z 02015KT 11/10 A3011 RMK A01 T01060101  RH  097%=      5-min Rain = 0.01
KMC5 231249Z 03014KT 11/10 A3011 RMK A01 T01060101  RH  097%=      5-min Rain = 0
KMC5 231250Z 02015KT 11/10 A3011 RMK A01 T01060101  RH  097%=      5-min Rain = 0
KMC5 231251Z 03013KT 11/10 A3011 RMK A01 T01060101  RH  097%=      5-min Rain = 0
KMC5 231252Z 03013KT 11/10 A3011 RMK A01 T01050100  RH  097%=      5-min Rain = 0.01
KMC5 231253Z 03014KT 11/10 A3011 RMK A01 T01050100  RH  097%=      5-min Rain = 0
KMC5 231254Z 03013KT 11/10 A3011 RMK A01 T01050100  RH  097%=      5-min Rain = 0
KMC5 231255Z 03014KT 11/10 A3011 RMK A01 T01050100  RH  097%=      5-min Rain = 0
KMC5 231256Z 03013KT 11/10 A3011 RMK A01 T01050100  RH  097%=      5-min Rain = 0.01
KMC5 231257Z 03015KT 10/10 A3011 RMK A01 T01040100  RH  097%=      5-min Rain = 0
KMC5 231258Z 03013KT 10/10 A3011 RMK A01 T01040099  RH  097%=      5-min Rain = 0
KMC5 231259Z 03012KT 10/10 A3011 RMK A01 T01040100  RH  097%=      5-min Rain = 0
KMC5 231300Z 03011KT 10/10 A3011 RMK A01 T01040100  RH  097%=      5-min Rain = 0.01
KMC5 231301Z 03014KT 10/10 A3011 RMK A01 T01040100  RH  097%=      5-min Rain = 0
KMC5 231302Z 02014KT 10/10 A3011 RMK A01 T01040099  RH  097%=      5-min Rain = 0
KMC5 231303Z 03016KT 10/10 A3011 RMK A01 T01030099  RH  097%=      5-min Rain = 0
KMC5 231304Z 03016KT 10/10 A3011 RMK A01 T01030098  RH  097%=      5-min Rain = 0.01
KMC5 231305Z 03017KT 10/10 A3011 RMK A01 T01020098  RH  097%=      5-min Rain = 0
KMC5 231306Z 03017KT 10/10 A3011 RMK A01 T01020097  RH  097%=      5-min Rain = 0.01
KMC5 231307Z 03017KT 10/10 A3011 RMK A01 T01010096  RH  097%=      5-min Rain = 0
KMC5 231308Z 03016KT 10/10 A3011 RMK A01 T01010096  RH  097%=      5-min Rain = 0.01
KMC5 231309Z 03017KT 10/10 A3011 RMK A01 T01010097  RH  097%=      5-min Rain = 0
KMC5 231310Z 03018KT 10/10 A3011 RMK A01 T01010096  RH  097%=      5-min Rain = 0
KMC5 231311Z 03018KT 10/10 A3011 RMK A01 T01010096  RH  097%=      5-min Rain = 0
KMC5 231312Z 03019KT 10/10 A3011 RMK A01 T01000096  RH  097%=      5-min Rain = 0
KMC5 231313Z 03019KT 10/10 A3011 RMK A01 T01000096  RH  097%=      5-min Rain = 0
KMC5 231314Z 03018KT 10/10 A3011 RMK A01 T01000096  RH  097%=      5-min Rain = 0.01
KMC5 231315Z 03020KT 10/10 A301 RMK A01 T01000096  RH  097%=      5-min Rain = 0
KMC5 231316Z 03018KT 10/10 A3011 RMK A01 T01000096  RH  097%=      5-min Rain = 0
KMC5 231317Z 03018KT 10/10 A3011 RMK A01 T01000095  RH  097%=      5-min Rain = 0
KMC5 231318Z 04016KT 10/10 A301 RMK A01 T01000095  RH  097%=      5-min Rain = 0.01
KMC5 231319Z 03016KT 10/10 A301 RMK A01 T01000096  RH  097%=      5-min Rain = 0
KMC5 231320Z 03017KT 10/10 A301 RMK A01 T01000096  RH  097%=      5-min Rain = 0
KMC5 231321Z 04018KT 10/10 A301 RMK A01 T01000096  RH  097%=      5-min Rain = 0
KMC5 231322Z 04018KT 10/10 A301 RMK A01 T01000096  RH  097%=      5-min Rain = 0
KMC5 231323Z 03016KT 10/10 A301 RMK A01 T01000095  RH  097%=      5-min Rain = 0.01
KMC5 231324Z 04017KT 10/10 A3011 RMK A01 T01000096  RH  097%=      5-min Rain = 0
KMC5 231325Z 03017KT 10/10 A3011 RMK A01 T01000096  RH  097%=      5-min Rain = 0
KMC5 231326Z 03015KT 10/10 A3011 RMK A01 T01000096  RH  097%=      5-min Rain = 0
KMC5 231327Z 03014KT 10/10 A3011 RMK A01 T01000096  RH  097%=      5-min Rain = 0
KMC5 231328Z 03015KT 10/10 A3011 RMK A01 T01000096  RH  097%=      5-min Rain = 0
KMC5 231329Z 03015KT 10/10 A3011 RMK A01 T01000096  RH  097%=      5-min Rain = 0
KMC5 231330Z 03015KT 10/10 A3011 RMK A01 T01000097  RH  097%=      5-min Rain = 0
KMC5 231331Z 03014KT 10/10 A301 RMK A01 T01000096  RH  097%=      5-min Rain = 0
KMC5 231332Z 03015KT 10/10 A301 RMK A01 T01000097  RH  097%=      5-min Rain = 0
KMC5 231333Z 03015KT 10/10 A301 RMK A01 T01000096  RH  097%=      5-min Rain = 0
KMC5 231334Z 03016KT 10/10 A301 RMK A01 T01000097  RH  098%=      5-min Rain = 0
KMC5 231335Z 03015KT 10/10 A301 RMK A01 T01000096  RH  097%=      5-min Rain = 0
KMC5 231336Z 03014KT 10/10 A301 RMK A01 T01000096  RH  097%=      5-min Rain = 0.01
KMC5 231337Z 03014KT 10/10 A3011 RMK A01 T01000097  RH  098%=      5-min Rain = 0
KMC5 231338Z 03014KT 10/10 A301 RMK A01 T01000097  RH  098%=      5-min Rain = 0
KMC5 231339Z 02012KT 10/10 A3011 RMK A01 T01000097  RH  098%=      5-min Rain = 0
KMC5 231340Z 02012KT 10/10 A3011 RMK A01 T01000097  RH  098%=      5-min Rain = 0
KMC5 231341Z 02014KT 10/10 A3011 RMK A01 T01010097  RH  098%=      5-min Rain = 0
KMC5 231342Z 02012KT 10/10 A3011 RMK A01 T01010097  RH  098%=      5-min Rain = 0
KMC5 231343Z 02011KT 10/10 A3011 RMK A01 T01010098  RH  098%=      5-min Rain = 0
KMC5 231344Z 01013KT 10/10 A3011 RMK A01 T01010098  RH  098%=      5-min Rain = 0
KMC5 231345Z 02011KT 10/10 A3011 RMK A01 T01010098  RH  098%=      5-min Rain = 0
KMC5 231346Z 02014KT 10/10 A301 RMK A01 T01010098  RH  098%=      5-min Rain = 0
KMC5 231347Z 01014KT 10/10 A301 RMK A01 T01010098  RH  098%=      5-min Rain = 0
KMC5 231348Z 02014KT 10/10 A301 RMK A01 T01020098  RH  098%=      5-min Rain = 0
KMC5 231349Z 01016KT 10/10 A301 RMK A01 T01010098  RH  098%=      5-min Rain = 0
KMC5 231350Z 01015KT 10/10 A301 RMK A01 T01020098  RH  098%=      5-min Rain = 0
KMC5 231351Z 02015KT 10/10 A3009 RMK A01 T01020098  RH  098%=      5-min Rain = 0
KMC5 231352Z 01013KT 10/10 A3009 RMK A01 T01020099  RH  098%=      5-min Rain = 0
KMC5 231353Z 01013KT 10/10 A3009 RMK A01 T01030100  RH  098%=      5-min Rain = 0
KMC5 231354Z 01016KT 10/10 A3009 RMK A01 T01030100  RH  098%=      5-min Rain = 0
KMC5 231355Z 02015KT 10/10 A3009 RMK A01 T01020099  RH  098%=      5-min Rain = 0
KMC5 231356Z 01013KT 10/10 A3009 RMK A01 T01030099  RH  098%=      5-min Rain = 0
KMC5 231357Z 01013KT 10/10 A3009 RMK A01 T01030100  RH  098%=      5-min Rain = 0
KMC5 231358Z 01014KT 10/10 A3009 RMK A01 T01040101  RH  098%=      5-min Rain = 0
KMC5 231359Z 02014KT 10/10 A3009 RMK A01 T01040100  RH  098%=      5-min Rain = 0
KMC5 231400Z 01013KT 10/10 A301 RMK A01 T01040100  RH  098%=      5-min Rain = 0
KMC5 231401Z 01011KT 10/10 A301 RMK A01 T01040101  RH  098%=      5-min Rain = 0
KMC5 231402Z 02014KT 10/10 A301 RMK A01 T01040101  RH  098%=      5-min Rain = 0
KMC5 231403Z 02014KT 10/10 A301 RMK A01 T01040101  RH  098%=      5-min Rain = 0
KMC5 231404Z 02014KT 10/10 A301 RMK A01 T01030100  RH  098%=      5-min Rain = 0
KMC5 231405Z 02015KT 10/10 A301 RMK A01 T01030099  RH  098%=      5-min Rain = 0
KMC5 231406Z 01014KT 10/10 A3011 RMK A01 T01020099  RH  098%=      5-min Rain = 0
KMC5 231407Z 01015KT 10/10 A3011 RMK A01 T01020098  RH  097%=      5-min Rain = 0
KMC5 231408Z 01016G21KT 10/10 A3011 RMK A01 T01010097  RH  097%=      5-min Rain = 0
KMC5 231409Z 01015G20KT 10/10 A3011 RMK A01 T01010097  RH  097%=      5-min Rain = 0
KMC5 231410Z 01019KT 10/10 A3011 RMK A01 T01010096  RH  097%=      5-min Rain = 0
KMC5 231411Z 01017KT 10/10 A3011 RMK A01 T01010096  RH  097%=      5-min Rain = 0
KMC5 231412Z 01017KT 10/10 A3011 RMK A01 T01010096  RH  097%=      5-min Rain = 0
KMC5 231413Z 01016KT 10/10 A3011 RMK A01 T01010095  RH  096%=      5-min Rain = 0
KMC5 231414Z 02015KT 10/10 A3012 RMK A01 T01010095  RH  096%=      5-min Rain = 0
KMC5 231415Z 02014KT 10/10 A3012 RMK A01 T01010095  RH  096%=      5-min Rain = 0
KMC5 231416Z 02013KT 10/10 A3012 RMK A01 T01010095  RH  096%=      5-min Rain = 0
KMC5 231417Z 02012KT 10/10 A3012 RMK A01 T01020095  RH  096%=      5-min Rain = 0
KMC5 231418Z 01011KT 10/10 A3012 RMK A01 T01020096  RH  096%=      5-min Rain = 0
KMC5 231419Z 01013KT 10/10 A3012 RMK A01 T01020096  RH  096%=      5-min Rain = 0
KMC5 231420Z 01014KT 10/10 A3012 RMK A01 T01020096  RH  096%=      5-min Rain = 0
KMC5 231421Z 01014KT 10/10 A3012 RMK A01 T01020096  RH  096%=      5-min Rain = 0
KMC5 231422Z 01017KT 10/09 A3012 RMK A01 T01010094  RH  096%=      5-min Rain = 0
KMC5 231423Z 01015KT 10/09 A3012 RMK A01 T01010093  RH  095%=      5-min Rain = 0
KMC5 231424Z 01013KT 10/09 A3012 RMK A01 T01010094  RH  095%=      5-min Rain = 0
KMC5 231425Z 01014KT 10/09 A3012 RMK A01 T01010094  RH  095%=      5-min Rain = 0
KMC5 231426Z 01016KT 10/09 A3012 RMK A01 T01010094  RH  095%=      5-min Rain = 0
KMC5 231427Z 01016KT 10/09 A3012 RMK A01 T01000092  RH  095%=      5-min Rain = 0
KMC5 231428Z 01014KT 10/09 A3012 RMK A01 T01000092  RH  095%=      5-min Rain = 0
KMC5 231429Z 02013KT 10/09 A3013 RMK A01 T01010093  RH  095%=      5-min Rain = 0
KMC5 231430Z 02014KT 10/09 A3013 RMK A01 T01010093  RH  095%=      5-min Rain = 0
KMC5 231431Z 02015KT 10/09 A3013 RMK A01 T01010093  RH  095%=      5-min Rain = 0
KMC5 231432Z 01014KT 10/09 A3013 RMK A01 T01010092  RH  095%=      5-min Rain = 0
KMC5 231433Z 01013KT 10/09 A3013 RMK A01 T01010093  RH  095%=      5-min Rain = 0
KMC5 231434Z 02010KT 10/09 A3013 RMK A01 T01010094  RH  095%=      5-min Rain = 0
KMC5 231435Z 02013KT 10/10 A3013 RMK A01 T01020095  RH  095%=      5-min Rain = 0
KMC5 231436Z 02014KT 10/09 A3013 RMK A01 T01020094  RH  095%=      5-min Rain = 0
KMC5 231437Z 02015KT 10/09 A3013 RMK A01 T01020093  RH  095%=      5-min Rain = 0
KMC5 231438Z 02015KT 10/09 A3013 RMK A01 T01010092  RH  094%=      5-min Rain = 0
KMC5 231439Z 02015KT 10/09 A3012 RMK A01 T01010092  RH  094%=      5-min Rain = 0
KMC5 231440Z 02013KT 10/09 A3012 RMK A01 T01010092  RH  094%=      5-min Rain = 0
KMC5 231441Z 01012KT 10/09 A3012 RMK A01 T01020094  RH  095%=      5-min Rain = 0
KMC5 231442Z 01012KT 10/09 A3012 RMK A01 T01030094  RH  095%=      5-min Rain = 0
KMC5 231443Z 01015KT 10/09 A3012 RMK A01 T01030094  RH  095%=      5-min Rain = 0
KMC5 231444Z 02016KT 10/09 A3012 RMK A01 T01030094  RH  094%=      5-min Rain = 0
KMC5 231445Z 01016KT 10/09 A3011 RMK A01 T01030093  RH  094%=      5-min Rain = 0
KMC5 231446Z 01016KT 10/09 A3011 RMK A01 T01030094  RH  094%=      5-min Rain = 0
KMC5 231447Z 01018KT 10/09 A3011 RMK A01 T01030094  RH  094%=      5-min Rain = 0
KMC5 231448Z 01019KT 10/09 A3011 RMK A01 T01030093  RH  093%=      5-min Rain = 0
KMC5 231449Z 02017KT 10/09 A3011 RMK A01 T01030093  RH  093%=      5-min Rain = 0
KMC5 231450Z 01016KT 10/09 A3012 RMK A01 T01040093  RH  093%=      5-min Rain = 0
KMC5 231451Z 01018KT 10/09 A3012 RMK A01 T01040092  RH  092%=      5-min Rain = 0
KMC5 231452Z 01017KT 10/09 A3012 RMK A01 T01030091  RH  092%=      5-min Rain = 0
KMC5 231453Z 02015KT 10/09 A3012 RMK A01 T01030092  RH  092%=      5-min Rain = 0
KMC5 231454Z 02017KT 10/09 A3012 RMK A01 T01040092  RH  093%=      5-min Rain = 0
KMC5 231455Z 02016KT 10/09 A3012 RMK A01 T01030092  RH  093%=      5-min Rain = 0
KMC5 231456Z 02016KT 10/09 A3012 RMK A01 T01030092  RH  093%=      5-min Rain = 0
KMC5 231457Z 02016KT 10/09 A3012 RMK A01 T01030092  RH  093%=      5-min Rain = 0
KMC5 231458Z 03017KT 10/09 A3012 RMK A01 T01030092  RH  093%=      5-min Rain = 0
KMC5 231459Z 02016KT 10/09 A3012 RMK A01 T01030092  RH  093%=      5-min Rain = 0
KMC5 231500Z 02014KT 10/09 A3013 RMK A01 T01020092  RH  093%=      5-min Rain = 0
KMC5 231501Z 02013KT 10/09 A3013 RMK A01 T01020093  RH  094%=      5-min Rain = 0
KMC5 231502Z 02014KT 10/09 A3013 RMK A01 T01030093  RH  094%=      5-min Rain = 0
KMC5 231503Z 01014KT 10/09 A3013 RMK A01 T01020092  RH  093%=      5-min Rain = 0
KMC5 231504Z 01015KT 10/09 A3013 RMK A01 T01020092  RH  093%=      5-min Rain = 0
KMC5 231505Z 02013KT 10/09 A3013 RMK A01 T01020091  RH  093%=      5-min Rain = 0
KMC5 231506Z 02013KT 10/09 A3013 RMK A01 T01020091  RH  093%=      5-min Rain = 0
KMC5 231507Z 02014KT 10/09 A3013 RMK A01 T01020091  RH  093%=      5-min Rain = 0
KMC5 231508Z 03014KT 10/09 A3013 RMK A01 T01020091  RH  093%=      5-min Rain = 0
KMC5 231509Z 03014KT 10/09 A3013 RMK A01 T01020091  RH  093%=      5-min Rain = 0
KMC5 231510Z 03014KT 10/09 A3013 RMK A01 T01030091  RH  093%=      5-min Rain = 0
KMC5 231511Z 03014KT 10/09 A3013 RMK A01 T01030090  RH  092%=      5-min Rain = 0
KMC5 231512Z 03015KT 10/09 A3013 RMK A01 T01030089  RH  091%=      5-min Rain = 0
KMC5 231513Z 03016KT 10/09 A3013 RMK A01 T01030087  RH  090%=      5-min Rain = 0
KMC5 231514Z 03016KT 10/09 A3013 RMK A01 T01030086  RH  089%=      5-min Rain = 0
KMC5 231515Z 02017KT 10/09 A3013 RMK A01 T01030086  RH  089%=      5-min Rain = 0
KMC5 231516Z 03016KT 10/09 A3013 RMK A01 T01030085  RH  089%=      5-min Rain = 0
KMC5 231517Z 03015KT 10/09 A3013 RMK A01 T01030085  RH  089%=      5-min Rain = 0
KMC5 231518Z 03014KT 10/09 A3013 RMK A01 T01030088  RH  090%=      5-min Rain = 0
KMC5 231519Z 03014KT 10/09 A3013 RMK A01 T01030088  RH  091%=      5-min Rain = 0
KMC5 231520Z 03015KT 10/09 A3013 RMK A01 T01030088  RH  091%=      5-min Rain = 0
KMC5 231521Z 02014KT 10/09 A3012 RMK A01 T01030088  RH  091%=      5-min Rain = 0
KMC5 231522Z 03014KT 10/09 A3012 RMK A01 T01030088  RH  091%=      5-min Rain = 0
KMC5 231523Z 02014KT 10/09 A3012 RMK A01 T01030090  RH  092%=      5-min Rain = 0
KMC5 231524Z 03015KT 10/09 A3012 RMK A01 T01040090  RH  091%=      5-min Rain = 0
KMC5 231525Z 02016KT 10/09 A3012 RMK A01 T01040088  RH  090%=      5-min Rain = 0
KMC5 231526Z 03017KT 10/09 A3012 RMK A01 T01040087  RH  089%=      5-min Rain = 0
KMC5 231527Z 03014KT 10/09 A3013 RMK A01 T01040087  RH  089%=      5-min Rain = 0
KMC5 231528Z 02013KT 10/09 A3013 RMK A01 T01040088  RH  090%=      5-min Rain = 0
KMC5 231529Z 02013KT 10/09 A3013 RMK A01 T01040088  RH  089%=      5-min Rain = 0
KMC5 231530Z 02015KT 10/09 A3013 RMK A01 T01040087  RH  089%=      5-min Rain = 0
KMC5 231531Z 01016KT 11/09 A3013 RMK A01 T01050085  RH  087%=      5-min Rain = 0
KMC5 231532Z 01017KT 11/08 A3013 RMK A01 T01050082  RH  086%=      5-min Rain = 0
KMC5 231533Z 01016KT 11/08 A3013 RMK A01 T01050082  RH  085%=      5-min Rain = 0
KMC5 231534Z 02016KT 11/08 A3012 RMK A01 T01050082  RH  086%=      5-min Rain = 0
KMC5 231535Z 02015KT 11/08 A3012 RMK A01 T01050084  RH  087%=      5-min Rain = 0
KMC5 231536Z 02017KT 11/08 A3012 RMK A01 T01050081  RH  085%=      5-min Rain = 0
KMC5 231537Z 02018KT 11/08 A3012 RMK A01 T01050081  RH  085%=      5-min Rain = 0
KMC5 231538Z 02018KT 10/08 A3012 RMK A01 T01040080  RH  085%=      5-min Rain = 0
KMC5 231539Z 02016KT 11/08 A3012 RMK A01 T01050081  RH  085%=      5-min Rain = 0
KMC5 231540Z 02016KT 10/08 A3012 RMK A01 T01040083  RH  086%=      5-min Rain = 0
KMC5 231541Z 03015KT 10/08 A3012 RMK A01 T01040082  RH  086%=      5-min Rain = 0
KMC5 231542Z 02013G18KT 10/09 A3012 RMK A01 T01040085  RH  088%=      5-min Rain = 0
KMC5 231543Z 02014KT 11/08 A3012 RMK A01 T01050084  RH  087%=      5-min Rain = 0
KMC5 231544Z 03013KT 11/09 A3012 RMK A01 T01050086  RH  088%=      5-min Rain = 0
KMC5 231545Z 02015KT 11/09 A3012 RMK A01 T01060085  RH  087%=      5-min Rain = 0
KMC5 231546Z 02017KT 11/08 A3012 RMK A01 T01060083  RH  086%=      5-min Rain = 0
KMC5 231547Z 02016KT 11/08 A3012 RMK A01 T01050079  RH  084%=      5-min Rain = 0
KMC5 231548Z 02014KT 11/08 A3012 RMK A01 T01050082  RH  086%=      5-min Rain = 0
KMC5 231549Z 02015KT 11/08 A3012 RMK A01 T01050084  RH  087%=      5-min Rain = 0
KMC5 231550Z 02014KT 11/09 A3012 RMK A01 T01060085  RH  087%=      5-min Rain = 0
KMC5 231551Z 02016KT 11/08 A3012 RMK A01 T01060083  RH  086%=      5-min Rain = 0
KMC5 231552Z 02016KT 11/08 A3012 RMK A01 T01060082  RH  085%=      5-min Rain = 0
KMC5 231553Z 03014KT 11/08 A3012 RMK A01 T01060084  RH  087%=      5-min Rain = 0
KMC5 231554Z 03015KT 11/08 A3012 RMK A01 T01060084  RH  087%=      5-min Rain = 0
KMC5 231555Z 03017G22KT 11/08 A3012 RMK A01 T01060083  RH  086%=      5-min Rain = 0
KMC5 231556Z 03017KT 11/08 A3012 RMK A01 T01060082  RH  085%=      5-min Rain = 0
KMC5 231557Z 03018KT 11/08 A3012 RMK A01 T01060079  RH  083%=      5-min Rain = 0
KMC5 231558Z 02018KT 11/08 A3012 RMK A01 T01050076  RH  082%=      5-min Rain = 0
KMC5 231559Z 02017KT 11/08 A3012 RMK A01 T01050078  RH  084%=      5-min Rain = 0
KMC5 231600Z 02020KT 11/08 A3012 RMK A01 T01050075  RH  081%=      5-min Rain = 0
KMC5 231601Z 02017KT 11/08 A3012 RMK A01 T01050075  RH  081%=      5-min Rain = 0
KMC5 231602Z 02019KT 11/07 A3012 RMK A01 T01050074  RH  081%=      5-min Rain = 0
KMC5 231603Z 02017KT 11/08 A3012 RMK A01 T01050075  RH  082%=      5-min Rain = 0
KMC5 231604Z 02019KT 11/08 A3012 RMK A01 T01060077  RH  082%=      5-min Rain = 0
KMC5 231605Z 03019KT 11/08 A3012 RMK A01 T01060076  RH  081%=      5-min Rain = 0
KMC5 231606Z 02017KT 11/08 A3012 RMK A01 T01060076  RH  081%=      5-min Rain = 0
KMC5 231607Z 02020KT 11/08 A3012 RMK A01 T01060075  RH  081%=      5-min Rain = 0
KMC5 231608Z 02019KT 11/07 A3012 RMK A01 T01060073  RH  080%=      5-min Rain = 0
KMC5 231609Z 02016KT 11/08 A3013 RMK A01 T01060076  RH  082%=      5-min Rain = 0
KMC5 231610Z 02015KT 11/08 A3013 RMK A01 T01060078  RH  082%=      5-min Rain = 0
KMC5 231611Z 03015KT 11/08 A3013 RMK A01 T01070076  RH  082%=      5-min Rain = 0
KMC5 231612Z 02015KT 11/08 A3013 RMK A01 T01070078  RH  082%=      5-min Rain = 0
KMC5 231613Z 02018KT 11/08 A3013 RMK A01 T01080075  RH  080%=      5-min Rain = 0
KMC5 231614Z 02016KT 11/07 A3013 RMK A01 T01070074  RH  080%=      5-min Rain = 0
KMC5 231615Z 02017KT 11/07 A3013 RMK A01 T01080073  RH  079%=      5-min Rain = 0
KMC5 231616Z 02018KT 11/07 A3013 RMK A01 T01070072  RH  079%=      5-min Rain = 0
KMC5 231617Z 02018KT 11/07 A3013 RMK A01 T01070073  RH  079%=      5-min Rain = 0
KMC5 231618Z 02018KT 11/07 A3013 RMK A01 T01070072  RH  079%=      5-min Rain = 0
KMC5 231619Z 02018KT 11/07 A3013 RMK A01 T01080071  RH  078%=      5-min Rain = 0
KMC5 231620Z 02018KT 11/07 A3013 RMK A01 T01070071  RH  078%=      5-min Rain = 0
KMC5 231621Z 02017KT 11/07 A3013 RMK A01 T01080070  RH  078%=      5-min Rain = 0
KMC5 231622Z 02015KT 11/07 A3013 RMK A01 T01080072  RH  078%=      5-min Rain = 0
KMC5 231623Z 03015KT 11/08 A3013 RMK A01 T01100077  RH  080%=      5-min Rain = 0
KMC5 231624Z 02016KT 11/07 A3013 RMK A01 T01110074  RH  078%=      5-min Rain = 0
KMC5 231625Z 02017KT 11/07 A3013 RMK A01 T01120074  RH  077%=      5-min Rain = 0
KMC5 231626Z 02017KT 11/07 A3013 RMK A01 T01130073  RH  077%=      5-min Rain = 0
KMC5 231627Z 02016KT 11/07 A3013 RMK A01 T01130073  RH  077%=      5-min Rain = 0
KMC5 231628Z 02017KT 11/07 A3013 RMK A01 T01130074  RH  077%=      5-min Rain = 0
KMC5 231629Z 02018KT 11/07 A3013 RMK A01 T01140072  RH  076%=      5-min Rain = 0
KMC5 231630Z 02019KT 11/07 A3013 RMK A01 T01140069  RH  074%=      5-min Rain = 0
KMC5 231631Z 02018KT 11/07 A3013 RMK A01 T01140069  RH  074%=      5-min Rain = 0
KMC5 231632Z 02015KT 11/07 A3013 RMK A01 T01140070  RH  074%=      5-min Rain = 0
KMC5 231633Z 02014KT 12/08 A3013 RMK A01 T01160076  RH  077%=      5-min Rain = 0
KMC5 231634Z 02016KT 12/08 A3013 RMK A01 T01190075  RH  075%=      5-min Rain = 0
KMC5 231635Z 02019KT 12/07 A3013 RMK A01 T01200073  RH  073%=      5-min Rain = 0
KMC5 231636Z 02019KT 12/07 A3013 RMK A01 T01180066  RH  070%=      5-min Rain = 0
KMC5 231637Z 02018KT 12/07 A3013 RMK A01 T01160068  RH  072%=      5-min Rain = 0
KMC5 231638Z 03018KT 12/07 A3013 RMK A01 T01160069  RH  073%=      5-min Rain = 0
KMC5 231639Z 03017KT 12/07 A3012 RMK A01 T01170071  RH  073%=      5-min Rain = 0
KMC5 231640Z 03017KT 12/07 A3013 RMK A01 T01180072  RH  073%=      5-min Rain = 0
KMC5 231641Z 02017KT 12/07 A3012 RMK A01 T01190072  RH  073%=      5-min Rain = 0
KMC5 231642Z 03015KT 12/07 A3012 RMK A01 T01190073  RH  073%=      5-min Rain = 0
KMC5 231643Z 02017KT 12/08 A3013 RMK A01 T01190075  RH  074%=      5-min Rain = 0
KMC5 231644Z 02017KT 12/07 A3013 RMK A01 T01180073  RH  074%=      5-min Rain = 0
KMC5 231645Z 02015KT 12/07 A3013 RMK A01 T01170074  RH  075%=      5-min Rain = 0
KMC5 231646Z 03015KT 12/07 A3013 RMK A01 T01170074  RH  075%=      5-min Rain = 0
KMC5 231647Z 02016KT 12/07 A3013 RMK A01 T01170073  RH  074%=      5-min Rain = 0
KMC5 231648Z 02015KT 12/07 A3013 RMK A01 T01170069  RH  072%=      5-min Rain = 0
KMC5 231649Z 03017KT 12/07 A3013 RMK A01 T01170068  RH  072%=      5-min Rain = 0
KMC5 231650Z 02016KT 12/07 A3013 RMK A01 T01180068  RH  071%=      5-min Rain = 0
KMC5 231651Z 03015KT 12/07 A3013 RMK A01 T01180068  RH  071%=      5-min Rain = 0
KMC5 231652Z 03015KT 12/07 A3013 RMK A01 T01180071  RH  072%=      5-min Rain = 0
KMC5 231653Z 03015KT 12/07 A3013 RMK A01 T01180070  RH  072%=      5-min Rain = 0
KMC5 231654Z 03014KT 12/07 A3014 RMK A01 T01190072  RH  073%=      5-min Rain = 0
KMC5 231655Z 03013KT 12/07 A3014 RMK A01 T01180073  RH  074%=      5-min Rain = 0
KMC5 231656Z 02014KT 12/07 A3014 RMK A01 T01180069  RH  072%=      5-min Rain = 0
KMC5 231657Z 03015KT 12/07 A3014 RMK A01 T01170069  RH  073%=      5-min Rain = 0
KMC5 231658Z 02015KT 12/07 A3014 RMK A01 T01160070  RH  073%=      5-min Rain = 0
KMC5 231659Z 02015KT 12/07 A3014 RMK A01 T01160070  RH  074%=      5-min Rain = 0
KMC5 231700Z 02014KT 12/07 A3014 RMK A01 T01150068  RH  072%=      5-min Rain = 0
KMC5 231701Z 01011KT 12/07 A3014 RMK A01 T01150069  RH  074%=      5-min Rain = 0
KMC5 231702Z 01011KT 12/07 A3014 RMK A01 T01150072  RH  075%=      5-min Rain = 0
KMC5 231703Z 02011KT 12/08 A3014 RMK A01 T01170075  RH  076%=      5-min Rain = 0
KMC5 231704Z 03011KT 12/08 A3014 RMK A01 T01180076  RH  075%=      5-min Rain = 0
KMC5 231705Z 01011KT 12/07 A3014 RMK A01 T01190071  RH  072%=      5-min Rain = 0
KMC5 231706Z 02013KT 12/07 A3014 RMK A01 T01170069  RH  072%=      5-min Rain = 0
KMC5 231707Z 04013KT 12/07 A3014 RMK A01 T01170071  RH  073%=      5-min Rain = 0
KMC5 231708Z 02014KT 12/07 A3014 RMK A01 T01180071  RH  073%=      5-min Rain = 0
KMC5 231709Z 02014KT 12/07 A3014 RMK A01 T01190070  RH  072%=      5-min Rain = 0
KMC5 231710Z 02014KT 12/07 A3014 RMK A01 T01190070  RH  072%=      5-min Rain = 0
KMC5 231711Z 02011KT 12/07 A3014 RMK A01 T01180070  RH  072%=      5-min Rain = 0
KMC5 231712Z 02014KT 12/07 A3014 RMK A01 T01180072  RH  073%=      5-min Rain = 0
KMC5 231713Z 02014KT 12/07 A3014 RMK A01 T01190066  RH  070%=      5-min Rain = 0
KMC5 231714Z 02013KT 12/07 A3014 RMK A01 T01180068  RH  072%=      5-min Rain = 0
KMC5 231715Z 02014KT 12/06 A3014 RMK A01 T01190064  RH  069%=      5-min Rain = 0
KMC5 231716Z 02016KT 12/06 A3014 RMK A01 T01190057  RH  066%=      5-min Rain = 0
KMC5 231717Z 02014KT 12/06 A3014 RMK A01 T01180060  RH  067%=      5-min Rain = 0
KMC5 231718Z 01016KT 12/06 A3014 RMK A01 T01180057  RH  066%=      5-min Rain = 0
KMC5 231719Z 01016KT 12/06 A3014 RMK A01 T01180056  RH  065%=      5-min Rain = 0
KMC5 231720Z 01014KT 12/06 A3014 RMK A01 T01180056  RH  066%=      5-min Rain = 0
KMC5 231721Z 01013KT 12/06 A3014 RMK A01 T01180059  RH  067%=      5-min Rain = 0
KMC5 231722Z 03014KT 12/06 A3013 RMK A01 T01190063  RH  069%=      5-min Rain = 0
KMC5 231723Z 03015KT 12/06 A3013 RMK A01 T01210058  RH  065%=      5-min Rain = 0
KMC5 231724Z 03017KT 12/06 A3013 RMK A01 T01220057  RH  064%=      5-min Rain = 0
KMC5 231725Z 03017KT 12/06 A3013 RMK A01 T01210057  RH  065%=      5-min Rain = 0
KMC5 231726Z 03015KT 12/06 A3013 RMK A01 T01200056  RH  065%=      5-min Rain = 0
KMC5 231727Z 03017KT 12/06 A3013 RMK A01 T01210056  RH  064%=      5-min Rain = 0
KMC5 231728Z 02015KT 12/05 A3013 RMK A01 T01220053  RH  063%=      5-min Rain = 0
KMC5 231729Z 03016KT 12/06 A3013 RMK A01 T01220056  RH  064%=      5-min Rain = 0
KMC5 231730Z 03016KT 12/06 A3013 RMK A01 T01220056  RH  064%=      5-min Rain = 0
KMC5 231731Z 02016KT 12/06 A3013 RMK A01 T01230056  RH  064%=      5-min Rain = 0
KMC5 231732Z 02013KT 12/06 A3013 RMK A01 T01220057  RH  065%=      5-min Rain = 0
KMC5 231733Z 02014KT 12/06 A3013 RMK A01 T01210061  RH  066%=      5-min Rain = 0
KMC5 231734Z 02015KT 12/06 A3013 RMK A01 T01220063  RH  067%=      5-min Rain = 0
KMC5 231735Z 02013KT 12/07 A3013 RMK A01 T01240065  RH  067%=      5-min Rain = 0
KMC5 231736Z 03016KT 13/06 A3012 RMK A01 T01250063  RH  066%=      5-min Rain = 0
KMC5 231737Z 02016KT 12/06 A3012 RMK A01 T01230062  RH  066%=      5-min Rain = 0
KMC5 231738Z 02015KT 12/06 A3012 RMK A01 T01220061  RH  066%=      5-min Rain = 0
KMC5 231739Z 02015KT 12/06 A3012 RMK A01 T01220062  RH  067%=      5-min Rain = 0
KMC5 231740Z 02015KT 12/06 A3012 RMK A01 T01220064  RH  067%=      5-min Rain = 0
KMC5 231741Z 02015KT 12/06 A3012 RMK A01 T01240064  RH  067%=      5-min Rain = 0
KMC5 231742Z 03014KT 12/06 A3012 RMK A01 T01240064  RH  066%=      5-min Rain = 0
KMC5 231743Z 02012KT 13/06 A3012 RMK A01 T01250061  RH  065%=      5-min Rain = 0
KMC5 231744Z 03012KT 12/06 A3012 RMK A01 T01240061  RH  065%=      5-min Rain = 0
KMC5 231745Z 01012KT 12/06 A3012 RMK A01 T01240063  RH  067%=      5-min Rain = 0
KMC5 231746Z 01010KT 13/06 A3012 RMK A01 T01250063  RH  066%=      5-min Rain = 0
KMC5 231747Z 01012KT 13/06 A3012 RMK A01 T01270064  RH  066%=      5-min Rain = 0
KMC5 231748Z 02012KT 13/06 A3012 RMK A01 T01280062  RH  065%=      5-min Rain = 0
KMC5 231749Z 01012KT 13/06 A3012 RMK A01 T01280062  RH  064%=      5-min Rain = 0
KMC5 231750Z 02014KT 13/06 A3012 RMK A01 T01280058  RH  063%=      5-min Rain = 0
KMC5 231751Z 02015KT 13/06 A3012 RMK A01 T01260057  RH  063%=      5-min Rain = 0
KMC5 231752Z 02014KT 13/06 A3012 RMK A01 T01250058  RH  064%=      5-min Rain = 0
KMC5 231753Z 02013KT 13/06 A3012 RMK A01 T01250062  RH  065%=      5-min Rain = 0
KMC5 231754Z 01012KT 13/06 A3012 RMK A01 T01260061  RH  065%=      5-min Rain = 0
KMC5 231755Z 01011KT 13/06 A3012 RMK A01 T01270062  RH  065%=      5-min Rain = 0
KMC5 231756Z 03013KT 13/06 A3012 RMK A01 T01260062  RH  065%=      5-min Rain = 0
KMC5 231757Z 02012KT 13/06 A3012 RMK A01 T01260061  RH  065%=      5-min Rain = 0
KMC5 231758Z 03012KT 13/06 A3012 RMK A01 T01260062  RH  065%=      5-min Rain = 0
KMC5 231759Z 04012KT 13/06 A3012 RMK A01 T01250060  RH  065%=      5-min Rain = 0
KMC5 231800Z 03012KT 13/06 A3012 RMK A01 T01250063  RH  066%=      5-min Rain = 0
KMC5 231801Z 04014KT 12/06 A3012 RMK A01 T01240062  RH  066%=      5-min Rain = 0
KMC5 231802Z 04014KT 12/06 A3012 RMK A01 T01240064  RH  067%=      5-min Rain = 0
KMC5 231803Z 04014KT 12/07 A3012 RMK A01 T01230065  RH  068%=      5-min Rain = 0
KMC5 231804Z 04015KT 12/07 A3011 RMK A01 T01240067  RH  068%=      5-min Rain = 0
KMC5 231805Z 02016KT 12/07 A3011 RMK A01 T01240065  RH  067%=      5-min Rain = 0
KMC5 231806Z 02013KT 12/07 A3012 RMK A01 T01240067  RH  068%=      5-min Rain = 0
KMC5 231807Z 02011KT 12/07 A3012 RMK A01 T01240069  RH  069%=      5-min Rain = 0
KMC5 231808Z 02012KT 13/07 A3012 RMK A01 T01250069  RH  069%=      5-min Rain = 0
KMC5 231809Z 02013KT 13/07 A3011 RMK A01 T01270069  RH  068%=      5-min Rain = 0
KMC5 231810Z 03011KT 13/07 A3011 RMK A01 T01270068  RH  067%=      5-min Rain = 0
KMC5 231811Z 02011KT 13/07 A3011 RMK A01 T01270071  RH  069%=      5-min Rain = 0
KMC5 231812Z 02013KT 13/07 A3011 RMK A01 T01290070  RH  067%=      5-min Rain = 0
KMC5 231813Z 02011KT 13/07 A3011 RMK A01 T01280068  RH  067%=      5-min Rain = 0
KMC5 231814Z 02013G18KT 13/07 A3011 RMK A01 T01290070  RH  068%=      5-min Rain = 0
KMC5 231815Z 02014KT 13/07 A3011 RMK A01 T01290068  RH  066%=      5-min Rain = 0
KMC5 231816Z 02013KT 13/07 A3011 RMK A01 T01290069  RH  067%=      5-min Rain = 0
KMC5 231817Z 01012KT 13/07 A3011 RMK A01 T01300071  RH  067%=      5-min Rain = 0
KMC5 231818Z 03013KT 13/07 A301 RMK A01 T01320068  RH  065%=      5-min Rain = 0
KMC5 231819Z 03012KT 13/07 A301 RMK A01 T01330068  RH  065%=      5-min Rain = 0
KMC5 231820Z 03015KT 13/07 A301 RMK A01 T01340068  RH  065%=      5-min Rain = 0
KMC5 231821Z 02014KT 14/07 A301 RMK A01 T01350068  RH  064%=      5-min Rain = 0
KMC5 231822Z 00014KT 13/07 A301 RMK A01 T01340068  RH  064%=      5-min Rain = 0
KMC5 231823Z 01013KT 13/07 A301 RMK A01 T01320066  RH  064%=      5-min Rain = 0
KMC5 231824Z 01014KT 13/07 A301 RMK A01 T01300067  RH  065%=      5-min Rain = 0
KMC5 231825Z 03014KT 13/07 A301 RMK A01 T01320069  RH  066%=      5-min Rain = 0
KMC5 231826Z 01012KT 13/07 A301 RMK A01 T01320070  RH  066%=      5-min Rain = 0
KMC5 231827Z 02013KT 13/07 A301 RMK A01 T01340073  RH  066%=      5-min Rain = 0
KMC5 231828Z 01015KT 14/08 A301 RMK A01 T01370076  RH  067%=      5-min Rain = 0
KMC5 231829Z 01015KT 14/07 A301 RMK A01 T01390074  RH  065%=      5-min Rain = 0
KMC5 231830Z 01016KT 14/07 A3009 RMK A01 T01380074  RH  065%=      5-min Rain = 0
KMC5 231831Z 01017KT 14/08 A301 RMK A01 T01390077  RH  066%=      5-min Rain = 0
KMC5 231832Z 01017KT 14/07 A3009 RMK A01 T01420074  RH  064%=      5-min Rain = 0
KMC5 231833Z 01016KT 14/07 A3009 RMK A01 T01400073  RH  064%=      5-min Rain = 0
KMC5 231834Z 02013KT 14/07 A3009 RMK A01 T01380073  RH  065%=      5-min Rain = 0
KMC5 231835Z 01014KT 14/08 A3009 RMK A01 T01380075  RH  066%=      5-min Rain = 0
KMC5 231836Z 01014KT 14/08 A3009 RMK A01 T01390076  RH  066%=      5-min Rain = 0
KMC5 231837Z 03016KT 14/08 A3009 RMK A01 T01430079  RH  065%=      5-min Rain = 0
KMC5 231838Z 03012KT 14/08 A3009 RMK A01 T01430077  RH  064%=      5-min Rain = 0
KMC5 231839Z 01011KT 14/08 A3009 RMK A01 T01430082  RH  067%=      5-min Rain = 0
KMC5 231840Z 02012KT 15/08 A3009 RMK A01 T01490084  RH  065%=      5-min Rain = 0
KMC5 231841Z 03015KT 15/08 A3009 RMK A01 T01490076  RH  062%=      5-min Rain = 0
KMC5 231842Z 03014KT 14/08 A3009 RMK A01 T01440077  RH  064%=      5-min Rain = 0
KMC5 231843Z 03015KT 14/08 A3009 RMK A01 T01430077  RH  064%=      5-min Rain = 0
KMC5 231844Z 03016KT 15/08 A3009 RMK A01 T01450080  RH  065%=      5-min Rain = 0
KMC5 231845Z 03014KT 15/08 A3009 RMK A01 T01480077  RH  063%=      5-min Rain = 0
KMC5 231846Z 01018KT 15/08 A3009 RMK A01 T01470077  RH  063%=      5-min Rain = 0
KMC5 231847Z 02017KT 14/07 A3008 RMK A01 T01430073  RH  063%=      5-min Rain = 0
KMC5 231848Z 02016KT 14/07 A3008 RMK A01 T01400073  RH  064%=      5-min Rain = 0
KMC5 231849Z 02016KT 14/07 A3008 RMK A01 T01390074  RH  065%=      5-min Rain = 0
KMC5 231850Z 01017KT 14/08 A3008 RMK A01 T01410077  RH  065%=      5-min Rain = 0
KMC5 231851Z 01013KT 15/08 A3008 RMK A01 T01450077  RH  064%=      5-min Rain = 0
KMC5 231852Z 02015KT 15/08 A3008 RMK A01 T01460077  RH  064%=      5-min Rain = 0
KMC5 231853Z 01014KT 15/08 A3008 RMK A01 T01450076  RH  063%=      5-min Rain = 0
KMC5 231854Z 02017KT 15/08 A3008 RMK A01 T01460080  RH  065%=      5-min Rain = 0
KMC5 231855Z 02016KT 15/08 A3008 RMK A01 T01480078  RH  063%=      5-min Rain = 0
KMC5 231856Z 02015KT 15/08 A3008 RMK A01 T01480078  RH  063%=      5-min Rain = 0
KMC5 231857Z 02011KT 15/08 A3008 RMK A01 T01510084  RH  064%=      5-min Rain = 0
KMC5 231858Z 02013KT 15/08 A3008 RMK A01 T01540083  RH  063%=      5-min Rain = 0
KMC5 231859Z 02016KT 15/08 A3008 RMK A01 T01540081  RH  062%=      5-min Rain = 0
KMC5 231900Z 01016KT 15/08 A3008 RMK A01 T01510077  RH  061%=      5-min Rain = 0
KMC5 231901Z 00013KT 15/08 A3008 RMK A01 T01460077  RH  063%=      5-min Rain = 0
KMC5 231902Z 01013KT 15/08 A3008 RMK A01 T01460080  RH  065%=      5-min Rain = 0
KMC5 231903Z 03015KT 15/08 A3008 RMK A01 T01500082  RH  064%=      5-min Rain = 0
KMC5 231904Z 02017KT 15/08 A3008 RMK A01 T01530083  RH  063%=      5-min Rain = 0
KMC5 231905Z 01015KT 15/08 A3008 RMK A01 T01500077  RH  062%=      5-min Rain = 0
KMC5 231906Z 00015KT 15/08 A3008 RMK A01 T01480080  RH  064%=      5-min Rain = 0
KMC5 231907Z 00016KT 15/08 A3008 RMK A01 T01480078  RH  063%=      5-min Rain = 0
KMC5 231908Z 01015KT 15/08 A3008 RMK A01 T01490081  RH  064%=      5-min Rain = 0
KMC5 231909Z 01016KT 15/08 A3008 RMK A01 T01520080  RH  062%=      5-min Rain = 0
KMC5 231910Z 01015KT 15/08 A3008 RMK A01 T01510081  RH  063%=      5-min Rain = 0
KMC5 231911Z 02014KT 15/08 A3008 RMK A01 T01500078  RH  062%=      5-min Rain = 0
KMC5 231912Z 02013KT 15/08 A3008 RMK A01 T01500084  RH  065%=      5-min Rain = 0
KMC5 231913Z 01016G21KT 15/08 A3008 RMK A01 T01530081  RH  062%=      5-min Rain = 0
KMC5 231914Z 01016KT 15/08 A3008 RMK A01 T01510079  RH  062%=      5-min Rain = 0
KMC5 231915Z 02013KT 15/08 A3008 RMK A01 T01490084  RH  065%=      5-min Rain = 0
KMC5 231916Z 01013KT 15/09 A3008 RMK A01 T01530085  RH  064%=      5-min Rain = 0
KMC5 231917Z 01016KT 15/08 A3008 RMK A01 T01540082  RH  062%=      5-min Rain = 0
KMC5 231918Z 01017KT 15/08 A3008 RMK A01 T01520081  RH  062%=      5-min Rain = 0
KMC5 231919Z 01015KT 15/08 A3008 RMK A01 T01490077  RH  062%=      5-min Rain = 0
KMC5 231920Z 01015KT 15/08 A3008 RMK A01 T01480083  RH  065%=      5-min Rain = 0
KMC5 231921Z 01017KT 15/08 A3008 RMK A01 T01490081  RH  063%=      5-min Rain = 0
KMC5 231922Z 02017KT 15/08 A3008 RMK A01 T01490082  RH  064%=      5-min Rain = 0
KMC5 231923Z 02011KT 15/08 A3008 RMK A01 T01500082  RH  064%=      5-min Rain = 0
KMC5 231924Z 02017KT 15/08 A3008 RMK A01 T01520083  RH  063%=      5-min Rain = 0
KMC5 231925Z 02014KT 15/08 A3008 RMK A01 T01490079  RH  063%=      5-min Rain = 0
KMC5 231926Z 01013KT 15/08 A3008 RMK A01 T01490079  RH  063%=      5-min Rain = 0
KMC5 231927Z 02017KT 15/08 A3008 RMK A01 T01500084  RH  064%=      5-min Rain = 0
KMC5 231928Z 02013KT 15/08 A3008 RMK A01 T01510077  RH  061%=      5-min Rain = 0
KMC5 231929Z 02011G16KT 15/08 A3008 RMK A01 T01490084  RH  065%=      5-min Rain = 0
KMC5 231930Z 01017KT 15/09 A3008 RMK A01 T01540085  RH  063%=      5-min Rain = 0
KMC5 231931Z 01017KT 15/08 A3008 RMK A01 T01530079  RH  061%=      5-min Rain = 0
KMC5 231932Z 01015KT 15/08 A3008 RMK A01 T01490080  RH  063%=      5-min Rain = 0
KMC5 231933Z 02015KT 15/08 A3008 RMK A01 T01490082  RH  064%=      5-min Rain = 0
KMC5 231934Z 01016KT 15/08 A3008 RMK A01 T01520082  RH  063%=      5-min Rain = 0
KMC5 231935Z 01013KT 15/08 A3008 RMK A01 T01530083  RH  063%=      5-min Rain = 0
KMC5 231936Z 02013KT 16/09 A3008 RMK A01 T01550086  RH  063%=      5-min Rain = 0
KMC5 231937Z 02017KT 16/08 A3008 RMK A01 T01550083  RH  062%=      5-min Rain = 0
KMC5 231938Z 01015KT 15/09 A3008 RMK A01 T01540085  RH  064%=      5-min Rain = 0
KMC5 231939Z 00016KT 15/08 A3008 RMK A01 T01540081  RH  062%=      5-min Rain = 0
KMC5 231940Z 00015KT 15/08 A3008 RMK A01 T01530082  RH  063%=      5-min Rain = 0
KMC5 231941Z 00017KT 16/09 A3008 RMK A01 T01550085  RH  063%=      5-min Rain = 0
KMC5 231942Z 01012KT 16/08 A3008 RMK A01 T01560084  RH  062%=      5-min Rain = 0
KMC5 231943Z 01013KT 16/08 A3008 RMK A01 T01560084  RH  062%=      5-min Rain = 0
KMC5 231944Z 01012KT 16/09 A3008 RMK A01 T01570085  RH  062%=      5-min Rain = 0
KMC5 231945Z 02013KT 16/08 A3008 RMK A01 T01590083  RH  060%=      5-min Rain = 0
KMC5 231946Z 01013KT 16/08 A3008 RMK A01 T01560083  RH  062%=      5-min Rain = 0
KMC5 231947Z 35013KT 16/08 A3008 RMK A01 T01570083  RH  061%=      5-min Rain = 0
KMC5 231948Z 01013KT 16/08 A3008 RMK A01 T01560082  RH  061%=      5-min Rain = 0
KMC5 231949Z 01013KT 16/08 A3008 RMK A01 T01550081  RH  061%=      5-min Rain = 0
KMC5 231950Z 02012KT 16/08 A3008 RMK A01 T01560083  RH  062%=      5-min Rain = 0
KMC5 231951Z 02012KT 16/09 A3008 RMK A01 T01570085  RH  062%=      5-min Rain = 0
KMC5 231952Z 02015KT 16/08 A3007 RMK A01 T01590084  RH  061%=      5-min Rain = 0
KMC5 231953Z 01017KT 16/08 A3007 RMK A01 T01560080  RH  060%=      5-min Rain = 0
KMC5 231954Z 01015KT 15/08 A3008 RMK A01 T01520081  RH  062%=      5-min Rain = 0
KMC5 231955Z 01015KT 15/08 A3008 RMK A01 T01520081  RH  063%=      5-min Rain = 0
KMC5 231956Z 01011KT 15/08 A3008 RMK A01 T01530081  RH  062%=      5-min Rain = 0
KMC5 231957Z 36011KT 15/09 A3008 RMK A01 T01530085  RH  064%=      5-min Rain = 0
KMC5 231958Z 36013KT 16/09 A3008 RMK A01 T01560086  RH  063%=      5-min Rain = 0
KMC5 231959Z 01014KT 16/08 A3008 RMK A01 T01570084  RH  062%=      5-min Rain = 0
KMC5 232000Z 01014G19KT 15/08 A3008 RMK A01 T01540081  RH  062%=      5-min Rain = 0
KMC5 232001Z 01014KT 15/08 A3008 RMK A01 T01510080  RH  062%=      5-min Rain = 0
KMC5 232002Z 01012KT 15/08 A3008 RMK A01 T01490079  RH  063%=      5-min Rain = 0
KMC5 232003Z 36016KT 15/08 A3008 RMK A01 T01480081  RH  064%=      5-min Rain = 0
KMC5 232004Z 35013KT 15/08 A3008 RMK A01 T01490080  RH  063%=      5-min Rain = 0
KMC5 232005Z 00013KT 15/08 A3008 RMK A01 T01490080  RH  063%=      5-min Rain = 0
KMC5 232006Z 00009KT 15/08 A3008 RMK A01 T01480082  RH  064%=      5-min Rain = 0
KMC5 232007Z 01015KT 15/08 A3007 RMK A01 T01500083  RH  064%=      5-min Rain = 0
KMC5 232008Z 02016KT 15/08 A3007 RMK A01 T01510082  RH  064%=      5-min Rain = 0
KMC5 232009Z 03013KT 15/08 A3007 RMK A01 T01500082  RH  064%=      5-min Rain = 0
KMC5 232010Z 01014KT 15/08 A3007 RMK A01 T01490083  RH  064%=      5-min Rain = 0
KMC5 232011Z 02013KT 15/08 A3007 RMK A01 T01480081  RH  064%=      5-min Rain = 0
KMC5 232012Z 02013KT 15/08 A3007 RMK A01 T01480081  RH  064%=      5-min Rain = 0
KMC5 232013Z 02015KT 15/08 A3007 RMK A01 T01500083  RH  064%=      5-min Rain = 0
KMC5 232014Z 01011KT 15/08 A3007 RMK A01 T01510080  RH  062%=      5-min Rain = 0
KMC5 232015Z 00012KT 15/08 A3007 RMK A01 T01490084  RH  065%=      5-min Rain = 0
KMC5 232016Z 01012KT 15/08 A3007 RMK A01 T01500083  RH  064%=      5-min Rain = 0
KMC5 232017Z 02010KT 15/08 A3007 RMK A01 T01510081  RH  063%=      5-min Rain = 0
KMC5 232018Z 01012KT 15/08 A3007 RMK A01 T01500082  RH  064%=      5-min Rain = 0
KMC5 232019Z 36010KT 15/08 A3007 RMK A01 T01490082  RH  064%=      5-min Rain = 0
KMC5 232020Z 00009KT 15/08 A3007 RMK A01 T01500084  RH  064%=      5-min Rain = 0
KMC5 232021Z 01010G16KT 15/09 A3007 RMK A01 T01540086  RH  064%=      5-min Rain = 0
KMC5 232022Z 02015KT 16/09 A3007 RMK A01 T01550085  RH  063%=      5-min Rain = 0
KMC5 232023Z 02012KT 15/08 A3007 RMK A01 T01530082  RH  063%=      5-min Rain = 0
KMC5 232024Z 03012KT 15/08 A3007 RMK A01 T01510083  RH  064%=      5-min Rain = 0
KMC5 232025Z 02014KT 15/08 A3007 RMK A01 T01520084  RH  064%=      5-min Rain = 0
KMC5 232026Z 01014KT 15/08 A3007 RMK A01 T01540083  RH  063%=      5-min Rain = 0
KMC5 232027Z 00013KT 15/08 A3007 RMK A01 T01520083  RH  063%=      5-min Rain = 0
KMC5 232028Z 00011KT 15/08 A3007 RMK A01 T01510082  RH  063%=      5-min Rain = 0
KMC5 232029Z 01011KT 15/09 A3007 RMK A01 T01530089  RH  066%=      5-min Rain = 0
KMC5 232030Z 04014KT 16/09 A3006 RMK A01 T01580091  RH  064%=      5-min Rain = 0
KMC5 232031Z 02013KT 16/09 A3006 RMK A01 T01600087  RH  062%=      5-min Rain = 0
KMC5 232032Z 01012KT 16/08 A3007 RMK A01 T01570084  RH  062%=      5-min Rain = 0
KMC5 232033Z 01012KT 16/09 A3006 RMK A01 T01550085  RH  063%=      5-min Rain = 0
KMC5 232034Z 00011KT 16/08 A3007 RMK A01 T01570084  RH  062%=      5-min Rain = 0
KMC5 232035Z 01011KT 16/09 A3007 RMK A01 T01590089  RH  063%=      5-min Rain = 0
KMC5 232036Z 01010KT 16/08 A3007 RMK A01 T01600084  RH  060%=      5-min Rain = 0
KMC5 232037Z 01009KT 16/08 A3007 RMK A01 T01590084  RH  061%=      5-min Rain = 0
KMC5 232038Z 03012KT 16/09 A3006 RMK A01 T01590088  RH  063%=      5-min Rain = 0
KMC5 232039Z 02015KT 16/09 A3006 RMK A01 T01620085  RH  060%=      5-min Rain = 0
KMC5 232040Z 00010KT 16/08 A3007 RMK A01 T01590083  RH  061%=      5-min Rain = 0
KMC5 232041Z 01010KT 16/08 A3006 RMK A01 T01560084  RH  062%=      5-min Rain = 0
KMC5 232042Z 00011KT 15/08 A3006 RMK A01 T01540082  RH  062%=      5-min Rain = 0
KMC5 232043Z 01012KT 15/08 A3006 RMK A01 T01540081  RH  062%=      5-min Rain = 0
KMC5 232044Z 02010KT 15/08 A3006 RMK A01 T01530083  RH  063%=      5-min Rain = 0
KMC5 232045Z 01012KT 15/08 A3006 RMK A01 T01530081  RH  062%=      5-min Rain = 0
KMC5 232046Z 36009KT 15/08 A3006 RMK A01 T01540083  RH  063%=      5-min Rain = 0
KMC5 232047Z 02010KT 16/09 A3006 RMK A01 T01590087  RH  062%=      5-min Rain = 0
KMC5 232048Z 02010KT 16/09 A3006 RMK A01 T01630089  RH  062%=      5-min Rain = 0
KMC5 232049Z 02013KT 16/09 A3006 RMK A01 T01640085  RH  060%=      5-min Rain = 0
KMC5 232050Z 02013KT 16/09 A3006 RMK A01 T01620086  RH  060%=      5-min Rain = 0
KMC5 232051Z 00013KT 16/09 A3006 RMK A01 T01640086  RH  060%=      5-min Rain = 0
KMC5 232052Z 36010KT 16/08 A3006 RMK A01 T01610081  RH  059%=      5-min Rain = 0
KMC5 232053Z 00008KT 16/08 A3006 RMK A01 T01580082  RH  061%=      5-min Rain = 0
KMC5 232054Z 01013KT 16/09 A3006 RMK A01 T01590087  RH  062%=      5-min Rain = 0
KMC5 232055Z 01014KT 16/08 A3006 RMK A01 T01610079  RH  058%=      5-min Rain = 0
KMC5 232056Z 02011KT 16/08 A3006 RMK A01 T01580080  RH  060%=      5-min Rain = 0
KMC5 232057Z 00010KT 16/08 A3006 RMK A01 T01560079  RH  060%=      5-min Rain = 0
KMC5 232058Z 00007KT 16/08 A3006 RMK A01 T01550080  RH  061%=      5-min Rain = 0
KMC5 232059Z 01007KT 16/09 A3006 RMK A01 T01590085  RH  061%=      5-min Rain = 0
KMC5 232100Z 00011KT 17/09 A3006 RMK A01 T01650087  RH  060%=      5-min Rain = 0
KMC5 232101Z 35011KT 17/08 A3006 RMK A01 T01660082  RH  058%=      5-min Rain = 0
KMC5 232102Z 35009KT 16/08 A3006 RMK A01 T01620079  RH  058%=      5-min Rain = 0
KMC5 232103Z 35007KT 16/08 A3006 RMK A01 T01590079  RH  059%=      5-min Rain = 0
KMC5 232104Z 36007KT 16/08 A3006 RMK A01 T01610084  RH  060%=      5-min Rain = 0
KMC5 232105Z 01011KT 17/09 A3006 RMK A01 T01670085  RH  058%=      5-min Rain = 0
KMC5 232106Z 01011G18KT 17/08 A3006 RMK A01 T01670081  RH  057%=      5-min Rain = 0
KMC5 232107Z 02014KT 16/08 A3006 RMK A01 T01630081  RH  058%=      5-min Rain = 0
KMC5 232108Z 02015KT 16/08 A3006 RMK A01 T01600080  RH  059%=      5-min Rain = 0
KMC5 232109Z 02014KT 16/08 A3006 RMK A01 T01570077  RH  059%=      5-min Rain = 0
KMC5 232110Z 02014KT 16/08 A3006 RMK A01 T01550078  RH  060%=      5-min Rain = 0
KMC5 232111Z 02012KT 16/08 A3006 RMK A01 T01550079  RH  060%=      5-min Rain = 0
KMC5 232112Z 01011KT 16/08 A3006 RMK A01 T01560079  RH  060%=      5-min Rain = 0
KMC5 232113Z 35012KT 16/08 A3006 RMK A01 T01560080  RH  060%=      5-min Rain = 0
KMC5 232114Z 35012KT 16/08 A3006 RMK A01 T01600082  RH  060%=      5-min Rain = 0
KMC5 232115Z 00008KT 16/08 A3006 RMK A01 T01620078  RH  057%=      5-min Rain = 0
KMC5 232116Z 35012KT 16/08 A3006 RMK A01 T01610078  RH  058%=      5-min Rain = 0
KMC5 232117Z 34014KT 16/08 A3006 RMK A01 T01580076  RH  058%=      5-min Rain = 0
KMC5 232118Z 35012G17KT 16/08 A3006 RMK A01 T01580077  RH  059%=      5-min Rain = 0
KMC5 232119Z 34010KT 16/08 A3006 RMK A01 T01590076  RH  058%=      5-min Rain = 0
KMC5 232120Z 00010KT 16/08 A3006 RMK A01 T01600077  RH  058%=      5-min Rain = 0
KMC5 232121Z 00009KT 16/08 A3006 RMK A01 T01600076  RH  057%=      5-min Rain = 0
KMC5 232122Z 01013KT 16/08 A3006 RMK A01 T01610077  RH  057%=      5-min Rain = 0
KMC5 232123Z 36012KT 16/08 A3006 RMK A01 T01630075  RH  056%=      5-min Rain = 0
KMC5 232124Z 35011KT 16/07 A3006 RMK A01 T01630074  RH  056%=      5-min Rain = 0
KMC5 232125Z 01012KT 16/08 A3006 RMK A01 T01620076  RH  057%=      5-min Rain = 0
KMC5 232126Z 01012KT 16/08 A3006 RMK A01 T01620075  RH  057%=      5-min Rain = 0
KMC5 232127Z 02011KT 16/07 A3006 RMK A01 T01590074  RH  057%=      5-min Rain = 0
KMC5 232128Z 02011KT 16/08 A3006 RMK A01 T01580076  RH  058%=      5-min Rain = 0
KMC5 232129Z 03010KT 16/08 A3006 RMK A01 T01600076  RH  057%=      5-min Rain = 0
KMC5 232130Z 02008KT 16/08 A3005 RMK A01 T01630076  RH  056%=      5-min Rain = 0
KMC5 232131Z 02007KT 16/07 A3006 RMK A01 T01640074  RH  055%=      5-min Rain = 0
KMC5 232132Z 34012KT 16/08 A3006 RMK A01 T01640077  RH  057%=      5-min Rain = 0
KMC5 232133Z 34012KT 16/08 A3006 RMK A01 T01610075  RH  057%=      5-min Rain = 0
KMC5 232134Z 34012KT 16/08 A3006 RMK A01 T01600076  RH  057%=      5-min Rain = 0
KMC5 232135Z 34013KT 16/08 A3006 RMK A01 T01600076  RH  057%=      5-min Rain = 0
KMC5 232136Z 34011KT 16/08 A3006 RMK A01 T01600075  RH  057%=      5-min Rain = 0
KMC5 232137Z 34010KT 16/07 A3005 RMK A01 T01600074  RH  057%=      5-min Rain = 0
KMC5 232138Z 34012KT 16/08 A3005 RMK A01 T01600080  RH  059%=      5-min Rain = 0
KMC5 232139Z 35011KT 16/08 A3005 RMK A01 T01620078  RH  057%=      5-min Rain = 0
KMC5 232140Z 34010KT 16/08 A3005 RMK A01 T01620076  RH  057%=      5-min Rain = 0
KMC5 232141Z 35010KT 16/08 A3005 RMK A01 T01600075  RH  057%=      5-min Rain = 0
KMC5 232142Z 34011KT 16/08 A3005 RMK A01 T01590076  RH  058%=      5-min Rain = 0
KMC5 232143Z 35011KT 16/08 A3005 RMK A01 T01590076  RH  058%=      5-min Rain = 0
KMC5 232144Z 01009KT 16/08 A3005 RMK A01 T01610075  RH  057%=      5-min Rain = 0
KMC5 232145Z 01010KT 16/08 A3005 RMK A01 T01600075  RH  057%=      5-min Rain = 0
KMC5 232146Z 02015G22KT 16/08 A3005 RMK A01 T01600076  RH  057%=      5-min Rain = 0
KMC5 232147Z 34013KT 16/08 A3005 RMK A01 T01620080  RH  058%=      5-min Rain = 0
KMC5 232148Z 33013KT 16/08 A3006 RMK A01 T01640076  RH  056%=      5-min Rain = 0
KMC5 232149Z 34010KT 16/08 A3006 RMK A01 T01630078  RH  057%=      5-min Rain = 0
KMC5 232150Z 35011KT 16/08 A3006 RMK A01 T01620075  RH  057%=      5-min Rain = 0
KMC5 232151Z 00010KT 16/08 A3006 RMK A01 T01600076  RH  058%=      5-min Rain = 0
KMC5 232152Z 35014KT 16/08 A3006 RMK A01 T01600079  RH  059%=      5-min Rain = 0
KMC5 232153Z 35014KT 16/08 A3006 RMK A01 T01600078  RH  058%=      5-min Rain = 0
KMC5 232154Z 34012KT 16/08 A3006 RMK A01 T01600079  RH  058%=      5-min Rain = 0
KMC5 232155Z 34010KT 16/08 A3006 RMK A01 T01600078  RH  058%=      5-min Rain = 0
KMC5 232156Z 33011KT 16/08 A3006 RMK A01 T01590076  RH  058%=      5-min Rain = 0
KMC5 232157Z 34011KT 16/08 A3006 RMK A01 T01580076  RH  058%=      5-min Rain = 0
KMC5 232158Z 00012KT 16/08 A3006 RMK A01 T01580075  RH  058%=      5-min Rain = 0
KMC5 232159Z 34013KT 16/08 A3006 RMK A01 T01580077  RH  059%=      5-min Rain = 0
KMC5 232200Z 35012KT 16/08 A3006 RMK A01 T01570075  RH  058%=      5-min Rain = 0
KMC5 232201Z 35009KT 16/08 A3006 RMK A01 T01560076  RH  059%=      5-min Rain = 0
KMC5 232202Z 36008KT 16/08 A3006 RMK A01 T01560075  RH  059%=      5-min Rain = 0
KMC5 232203Z 35008KT 15/07 A3006 RMK A01 T01540072  RH  058%=      5-min Rain = 0
KMC5 232204Z 34010KT 15/08 A3006 RMK A01 T01540076  RH  060%=      5-min Rain = 0
KMC5 232205Z 34013KT 15/08 A3006 RMK A01 T01540075  RH  059%=      5-min Rain = 0
KMC5 232206Z 36013KT 15/07 A3006 RMK A01 T01530073  RH  059%=      5-min Rain = 0
KMC5 232207Z 36012KT 15/07 A3006 RMK A01 T01520072  RH  059%=      5-min Rain = 0
KMC5 232208Z 35010KT 15/08 A3006 RMK A01 T01520075  RH  060%=      5-min Rain = 0
KMC5 232209Z 35012KT 15/08 A3006 RMK A01 T01530075  RH  060%=      5-min Rain = 0
KMC5 232210Z 35010KT 15/07 A3006 RMK A01 T01530073  RH  059%=      5-min Rain = 0
KMC5 232211Z 34009KT 15/07 A3006 RMK A01 T01520074  RH  059%=      5-min Rain = 0
KMC5 232212Z 33008KT 15/07 A3006 RMK A01 T01520074  RH  059%=      5-min Rain = 0
KMC5 232213Z 35007KT 15/07 A3006 RMK A01 T01520073  RH  059%=      5-min Rain = 0
KMC5 232214Z 35010KT 15/08 A3006 RMK A01 T01520076  RH  060%=      5-min Rain = 0
KMC5 232215Z 34009KT 15/07 A3006 RMK A01 T01530072  RH  058%=      5-min Rain = 0
KMC5 232216Z 34009KT 15/07 A3006 RMK A01 T01520073  RH  059%=      5-min Rain = 0
KMC5 232217Z 36010KT 15/08 A3006 RMK A01 T01520076  RH  061%=      5-min Rain = 0
KMC5 232218Z 01011KT 15/08 A3006 RMK A01 T01530076  RH  060%=      5-min Rain = 0
KMC5 232219Z 01010KT 15/07 A3006 RMK A01 T01530073  RH  059%=      5-min Rain = 0
KMC5 232220Z 35012KT 15/08 A3006 RMK A01 T01520075  RH  060%=      5-min Rain = 0
KMC5 232221Z 35010KT 15/07 A3006 RMK A01 T01520073  RH  059%=      5-min Rain = 0
KMC5 232222Z 35009KT 15/07 A3006 RMK A01 T01500070  RH  058%=      5-min Rain = 0
KMC5 232223Z 35008KT 15/07 A3006 RMK A01 T01490071  RH  059%=      5-min Rain = 0
KMC5 232224Z 35009KT 15/07 A3006 RMK A01 T01490070  RH  059%=      5-min Rain = 0
KMC5 232225Z 36010KT 15/07 A3006 RMK A01 T01490073  RH  060%=      5-min Rain = 0
KMC5 232226Z 00009KT 15/08 A3006 RMK A01 T01500077  RH  061%=      5-min Rain = 0
KMC5 232227Z 36008KT 15/08 A3006 RMK A01 T01520075  RH  060%=      5-min Rain = 0
KMC5 232228Z 36008KT 15/07 A3006 RMK A01 T01520073  RH  059%=      5-min Rain = 0
KMC5 232229Z 01010KT 15/08 A3007 RMK A01 T01510075  RH  060%=      5-min Rain = 0
KMC5 232230Z 01010KT 15/07 A3006 RMK A01 T01510071  RH  059%=      5-min Rain = 0
KMC5 232231Z 01009KT 15/07 A3007 RMK A01 T01500074  RH  060%=      5-min Rain = 0
KMC5 232232Z 01010KT 15/08 A3007 RMK A01 T01500077  RH  061%=      5-min Rain = 0
KMC5 232233Z 00011KT 15/07 A3007 RMK A01 T01510074  RH  060%=      5-min Rain = 0
KMC5 232234Z 35009KT 15/07 A3007 RMK A01 T01510073  RH  060%=      5-min Rain = 0
KMC5 232235Z 36010KT 15/07 A3007 RMK A01 T01500073  RH  060%=      5-min Rain = 0
KMC5 232236Z 00007KT 15/08 A3007 RMK A01 T01500075  RH  061%=      5-min Rain = 0
KMC5 232237Z 00007KT 15/08 A3007 RMK A01 T01500075  RH  061%=      5-min Rain = 0
KMC5 232238Z 36009KT 15/08 A3007 RMK A01 T01510077  RH  061%=      5-min Rain = 0
KMC5 232239Z 36009KT 15/08 A3007 RMK A01 T01510075  RH  060%=      5-min Rain = 0
KMC5 232240Z 01010KT 15/08 A3007 RMK A01 T01510078  RH  061%=      5-min Rain = 0
KMC5 232241Z 01011KT 15/07 A3007 RMK A01 T01510073  RH  060%=      5-min Rain = 0
KMC5 232242Z 01010KT 15/07 A3007 RMK A01 T01490072  RH  060%=      5-min Rain = 0
KMC5 232243Z 00009KT 15/08 A3007 RMK A01 T01480076  RH  062%=      5-min Rain = 0
KMC5 232244Z 01012KT 15/07 A3007 RMK A01 T01490073  RH  060%=      5-min Rain = 0
KMC5 232245Z 00009KT 15/07 A3007 RMK A01 T01490073  RH  060%=      5-min Rain = 0
KMC5 232246Z 01011KT 15/07 A3007 RMK A01 T01480074  RH  061%=      5-min Rain = 0
KMC5 232247Z 01010KT 15/07 A3007 RMK A01 T01480073  RH  061%=      5-min Rain = 0
KMC5 232248Z 01010KT 15/07 A3007 RMK A01 T01480074  RH  061%=      5-min Rain = 0
KMC5 232249Z 01011KT 15/07 A3007 RMK A01 T01480073  RH  061%=      5-min Rain = 0
KMC5 232250Z 00012KT 15/07 A3007 RMK A01 T01480071  RH  060%=      5-min Rain = 0
KMC5 232251Z 35011KT 15/07 A3007 RMK A01 T01470069  RH  060%=      5-min Rain = 0
KMC5 232252Z 36011KT 15/07 A3007 RMK A01 T01460070  RH  060%=      5-min Rain = 0
KMC5 232253Z 35011KT 15/07 A3007 RMK A01 T01460069  RH  060%=      5-min Rain = 0
KMC5 232254Z 36011KT 15/07 A3007 RMK A01 T01470071  RH  061%=      5-min Rain = 0
KMC5 232255Z 01013KT 15/07 A3007 RMK A01 T01470071  RH  060%=      5-min Rain = 0
KMC5 232256Z 00010KT 15/07 A3007 RMK A01 T01470071  RH  060%=      5-min Rain = 0
KMC5 232257Z 00009KT 15/07 A3007 RMK A01 T01480074  RH  061%=      5-min Rain = 0
KMC5 232258Z 36012KT 15/07 A3006 RMK A01 T01490074  RH  061%=      5-min Rain = 0
KMC5 232259Z 36013KT 15/07 A3006 RMK A01 T01490071  RH  060%=      5-min Rain = 0
KMC5 232300Z 00014KT 15/07 A3006 RMK A01 T01480069  RH  059%=      5-min Rain = 0
KMC5 232301Z 01012KT 15/07 A3006 RMK A01 T01470070  RH  060%=      5-min Rain = 0
KMC5 232302Z 01011KT 15/07 A3006 RMK A01 T01470069  RH  060%=      5-min Rain = 0
KMC5 232303Z 01012KT 15/07 A3006 RMK A01 T01480069  RH  059%=      5-min Rain = 0
KMC5 232304Z 00013KT 15/07 A3006 RMK A01 T01480068  RH  059%=      5-min Rain = 0
KMC5 232305Z 01012KT 15/07 A3006 RMK A01 T01470068  RH  059%=      5-min Rain = 0
KMC5 232306Z 01012KT 15/07 A3006 RMK A01 T01470068  RH  059%=      5-min Rain = 0
KMC5 232307Z 01011KT 15/07 A3006 RMK A01 T01470068  RH  059%=      5-min Rain = 0
KMC5 232308Z 01012KT 15/07 A3006 RMK A01 T01470070  RH  060%=      5-min Rain = 0
KMC5 232309Z 01011KT 15/07 A3006 RMK A01 T01480069  RH  059%=      5-min Rain = 0
KMC5 232310Z 36013KT 15/07 A3006 RMK A01 T01480069  RH  059%=      5-min Rain = 0
KMC5 232311Z 36011KT 15/07 A3006 RMK A01 T01480068  RH  059%=      5-min Rain = 0
KMC5 232312Z 01009KT 15/07 A3006 RMK A01 T01480069  RH  059%=      5-min Rain = 0
KMC5 232313Z 01010KT 15/07 A3006 RMK A01 T01480069  RH  059%=      5-min Rain = 0
KMC5 232314Z 01012KT 15/07 A3006 RMK A01 T01480067  RH  058%=      5-min Rain = 0
KMC5 232315Z 36012KT 15/07 A3006 RMK A01 T01480069  RH  059%=      5-min Rain = 0
KMC5 232316Z 00012KT 15/07 A3006 RMK A01 T01480068  RH  059%=      5-min Rain = 0
KMC5 232317Z 01011KT 15/07 A3006 RMK A01 T01470068  RH  059%=      5-min Rain = 0
KMC5 232318Z 00012KT 15/07 A3006 RMK A01 T01470069  RH  060%=      5-min Rain = 0
KMC5 232319Z 36012KT 15/07 A3006 RMK A01 T01470068  RH  059%=      5-min Rain = 0
KMC5 232320Z 00012KT 15/07 A3006 RMK A01 T01470070  RH  060%=      5-min Rain = 0
KMC5 232321Z 00012KT 15/07 A3006 RMK A01 T01470070  RH  060%=      5-min Rain = 0
KMC5 232322Z 36011KT 15/07 A3006 RMK A01 T01480069  RH  059%=      5-min Rain = 0
KMC5 232323Z 36011KT 15/07 A3006 RMK A01 T01470067  RH  059%=      5-min Rain = 0
KMC5 232324Z 35011KT 15/07 A3006 RMK A01 T01460067  RH  059%=      5-min Rain = 0
KMC5 232325Z 35012KT 15/07 A3005 RMK A01 T01460068  RH  059%=      5-min Rain = 0
KMC5 232326Z 00009KT 15/07 A3005 RMK A01 T01470067  RH  059%=      5-min Rain = 0
KMC5 232327Z 36010KT 15/07 A3005 RMK A01 T01470069  RH  059%=      5-min Rain = 0
KMC5 232328Z 36009KT 15/07 A3005 RMK A01 T01480068  RH  059%=      5-min Rain = 0
KMC5 232329Z 35010KT 15/07 A3005 RMK A01 T01480070  RH  060%=      5-min Rain = 0
KMC5 232330Z 00010KT 15/07 A3005 RMK A01 T01490067  RH  058%=      5-min Rain = 0
KMC5 232331Z 00012KT 15/07 A3005 RMK A01 T01480068  RH  058%=      5-min Rain = 0
KMC5 232332Z 00011KT 15/07 A3005 RMK A01 T01480067  RH  058%=      5-min Rain = 0
KMC5 232333Z 01011KT 15/07 A3005 RMK A01 T01490067  RH  058%=      5-min Rain = 0
KMC5 232334Z 00012KT 15/07 A3005 RMK A01 T01500067  RH  058%=      5-min Rain = 0
KMC5 232335Z 01012KT 15/07 A3005 RMK A01 T01490068  RH  058%=      5-min Rain = 0
KMC5 232336Z 02010KT 15/07 A3005 RMK A01 T01490067  RH  058%=      5-min Rain = 0
KMC5 232337Z 02011KT 15/07 A3005 RMK A01 T01480065  RH  058%=      5-min Rain = 0
KMC5 232338Z 01012KT 15/07 A3005 RMK A01 T01470065  RH  058%=      5-min Rain = 0
KMC5 232339Z 00012KT 15/07 A3005 RMK A01 T01470067  RH  059%=      5-min Rain = 0
KMC5 232340Z 01013KT 15/07 A3005 RMK A01 T01470068  RH  059%=      5-min Rain = 0
KMC5 232341Z 01013KT 15/07 A3005 RMK A01 T01470066  RH  058%=      5-min Rain = 0
KMC5 232342Z 01013KT 15/07 A3005 RMK A01 T01460067  RH  059%=      5-min Rain = 0
KMC5 232343Z 00011KT 15/07 A3005 RMK A01 T01460065  RH  058%=      5-min Rain = 0
KMC5 232344Z 36010KT 15/07 A3005 RMK A01 T01470067  RH  059%=      5-min Rain = 0
KMC5 232345Z 00010KT 15/07 A3005 RMK A01 T01480065  RH  058%=      5-min Rain = 0
KMC5 232346Z 02011KT 15/07 A3005 RMK A01 T01480069  RH  059%=      5-min Rain = 0
KMC5 232347Z 01010KT 15/07 A3005 RMK A01 T01480069  RH  059%=      5-min Rain = 0
KMC5 232348Z 01011KT 15/07 A3005 RMK A01 T01480068  RH  059%=      5-min Rain = 0
KMC5 232349Z 01013KT 15/07 A3005 RMK A01 T01460068  RH  059%=      5-min Rain = 0
KMC5 232350Z 01012KT 15/07 A3005 RMK A01 T01460066  RH  059%=      5-min Rain = 0
KMC5 232351Z 00012KT 15/06 A3005 RMK A01 T01460064  RH  058%=      5-min Rain = 0
KMC5 232352Z 36012KT 15/06 A3005 RMK A01 T01460064  RH  058%=      5-min Rain = 0
KMC5 232353Z 35012KT 15/07 A3005 RMK A01 T01460066  RH  059%=      5-min Rain = 0
KMC5 232354Z 35011KT 15/06 A3005 RMK A01 T01480064  RH  057%=      5-min Rain = 0
KMC5 232355Z 35013KT 15/07 A3005 RMK A01 T01480065  RH  058%=      5-min Rain = 0
KMC5 232356Z 35012KT 15/06 A3005 RMK A01 T01460064  RH  058%=      5-min Rain = 0
KMC5 232357Z 36012KT 15/06 A3005 RMK A01 T01450064  RH  058%=      5-min Rain = 0
KMC5 232358Z 36012KT 15/06 A3005 RMK A01 T01450064  RH  058%=      5-min Rain = 0
KMC5 232359Z 36011KT 14/06 A3005 RMK A01 T01440063  RH  058%=      5-min Rain = 0
KMC5 240000Z 00012KT 14/06 A3005 RMK A01 T01440064  RH  058%=      5-min Rain = 0
KMC5 240001Z 01012KT 14/06 A3005 RMK A01 T01430063  RH  058%=      5-min Rain = 0
KMC5 240002Z 00012KT 14/06 A3005 RMK A01 T01420062  RH  058%=      5-min Rain = 0
KMC5 240003Z 00012KT 14/06 A3005 RMK A01 T01420062  RH  059%=      5-min Rain = 0
KMC5 240004Z 36012KT 14/06 A3005 RMK A01 T01420062  RH  059%=      5-min Rain = 0
KMC5 240005Z 35010KT 14/06 A3005 RMK A01 T01420063  RH  059%=      5-min Rain = 0
KMC5 240006Z 35010KT 14/06 A3005 RMK A01 T01420062  RH  059%=      5-min Rain = 0
KMC5 240007Z 00009KT 14/06 A3005 RMK A01 T01420064  RH  059%=      5-min Rain = 0
KMC5 240008Z 01010KT 14/06 A3005 RMK A01 T01420063  RH  059%=      5-min Rain = 0
KMC5 240009Z 01012KT 14/06 A3005 RMK A01 T01420061  RH  058%=      5-min Rain = 0
KMC5 240010Z 00012KT 14/06 A3005 RMK A01 T01420059  RH  058%=      5-min Rain = 0
KMC5 240011Z 36013KT 14/06 A3005 RMK A01 T01410059  RH  058%=      5-min Rain = 0
KMC5 240012Z 00010KT 14/06 A3005 RMK A01 T01410060  RH  058%=      5-min Rain = 0
KMC5 240013Z 00010KT 14/06 A3005 RMK A01 T01410061  RH  059%=      5-min Rain = 0
KMC5 240014Z 36012KT 14/06 A3005 RMK A01 T01410058  RH  057%=      5-min Rain = 0
KMC5 240015Z 36010KT 14/06 A3005 RMK A01 T01410059  RH  058%=      5-min Rain = 0
KMC5 240016Z 01011KT 14/06 A3005 RMK A01 T01410058  RH  057%=      5-min Rain = 0
KMC5 240017Z 01011KT 14/06 A3005 RMK A01 T01410057  RH  057%=      5-min Rain = 0
KMC5 240018Z 01011KT 14/06 A3005 RMK A01 T01410057  RH  057%=      5-min Rain = 0
KMC5 240019Z 36009KT 14/06 A3005 RMK A01 T01410060  RH  058%=      5-min Rain = 0
KMC5 240020Z 35010KT 14/06 A3005 RMK A01 T01410059  RH  057%=      5-min Rain = 0
KMC5 240021Z 35011KT 14/06 A3005 RMK A01 T01410057  RH  057%=      5-min Rain = 0
KMC5 240022Z 35010KT 14/06 A3005 RMK A01 T01410056  RH  056%=      5-min Rain = 0
KMC5 240023Z 35011KT 14/06 A3005 RMK A01 T01400056  RH  057%=      5-min Rain = 0
KMC5 240024Z 35012KT 14/06 A3005 RMK A01 T01400056  RH  057%=      5-min Rain = 0
KMC5 240025Z 35011KT 14/06 A3005 RMK A01 T01400058  RH  058%=      5-min Rain = 0
KMC5 240026Z 00011KT 14/06 A3005 RMK A01 T01400058  RH  058%=      5-min Rain = 0
KMC5 240027Z 36012KT 14/06 A3005 RMK A01 T01400057  RH  057%=      5-min Rain = 0
KMC5 240028Z 35012KT 14/06 A3005 RMK A01 T01400058  RH  058%=      5-min Rain = 0
KMC5 240029Z 35010KT 14/06 A3005 RMK A01 T01400056  RH  057%=      5-min Rain = 0
KMC5 240030Z 35011KT 14/06 A3005 RMK A01 T01400057  RH  057%=      5-min Rain = 0
KMC5 240031Z 35010KT 14/06 A3005 RMK A01 T01400056  RH  057%=      5-min Rain = 0
KMC5 240032Z 34009KT 14/06 A3005 RMK A01 T01400056  RH  057%=      5-min Rain = 0
KMC5 240033Z 35009KT 14/06 A3005 RMK A01 T01390056  RH  057%=      5-min Rain = 0
KMC5 240034Z 35010KT 14/06 A3005 RMK A01 T01390055  RH  057%=      5-min Rain = 0
KMC5 240035Z 36011KT 14/06 A3005 RMK A01 T01390057  RH  058%=      5-min Rain = 0
KMC5 240036Z 35010KT 14/06 A3005 RMK A01 T01390055  RH  057%=      5-min Rain = 0
KMC5 240037Z 36011KT 14/06 A3005 RMK A01 T01390057  RH  058%=      5-min Rain = 0
KMC5 240038Z 36011KT 14/06 A3005 RMK A01 T01390057  RH  058%=      5-min Rain = 0
KMC5 240039Z 36010KT 14/06 A3005 RMK A01 T01390055  RH  057%=      5-min Rain = 0
KMC5 240040Z 36010KT 14/06 A3005 RMK A01 T01390058  RH  058%=      5-min Rain = 0
KMC5 240041Z 35012KT 14/06 A3005 RMK A01 T01380056  RH  058%=      5-min Rain = 0
KMC5 240042Z 35012KT 14/05 A3005 RMK A01 T01380054  RH  057%=      5-min Rain = 0
KMC5 240043Z 36011KT 14/05 A3005 RMK A01 T01380052  RH  056%=      5-min Rain = 0
KMC5 240044Z 35011KT 14/05 A3005 RMK A01 T01370053  RH  057%=      5-min Rain = 0
KMC5 240045Z 35011KT 14/05 A3005 RMK A01 T01370054  RH  057%=      5-min Rain = 0
KMC5 240046Z 35011KT 14/05 A3005 RMK A01 T01370053  RH  057%=      5-min Rain = 0
KMC5 240047Z 34013KT 14/05 A3005 RMK A01 T01370053  RH  057%=      5-min Rain = 0
KMC5 240048Z 34014KT 14/05 A3005 RMK A01 T01350050  RH  056%=      5-min Rain = 0
KMC5 240049Z 35014KT 14/05 A3005 RMK A01 T01350051  RH  057%=      5-min Rain = 0
KMC5 240050Z 35012KT 13/05 A3005 RMK A01 T01340050  RH  057%=      5-min Rain = 0
KMC5 240051Z 35013KT 13/05 A3005 RMK A01 T01340050  RH  057%=      5-min Rain = 0
KMC5 240052Z 35012KT 13/05 A3005 RMK A01 T01340050  RH  057%=      5-min Rain = 0
KMC5 240053Z 35012KT 13/05 A3005 RMK A01 T01340051  RH  057%=      5-min Rain = 0
KMC5 240054Z 35012KT 13/05 A3005 RMK A01 T01330049  RH  056%=      5-min Rain = 0
KMC5 240055Z 35011KT 13/05 A3005 RMK A01 T01330050  RH  057%=      5-min Rain = 0
KMC5 240056Z 36011KT 13/05 A3005 RMK A01 T01330052  RH  058%=      5-min Rain = 0
KMC5 240057Z 35010KT 13/05 A3005 RMK A01 T01330054  RH  059%=      5-min Rain = 0
KMC5 240058Z 35012KT 13/05 A3005 RMK A01 T01330051  RH  058%=      5-min Rain = 0
KMC5 240059Z 35012KT 13/05 A3005 RMK A01 T01330051  RH  057%=      5-min Rain = 0
KMC5 240100Z 36012KT 13/05 A3005 RMK A01 T01330049  RH  057%=      5-min Rain = 0
KMC5 240101Z 36012KT 13/05 A3005 RMK A01 T01320049  RH  057%=      5-min Rain = 0
KMC5 240102Z 35010KT 13/05 A3005 RMK A01 T01320050  RH  057%=      5-min Rain = 0
KMC5 240103Z 35010KT 13/05 A3005 RMK A01 T01320053  RH  059%=      5-min Rain = 0
KMC5 240104Z 35012KT 13/05 A3005 RMK A01 T01320049  RH  057%=      5-min Rain = 0
KMC5 240105Z 35011KT 13/05 A3005 RMK A01 T01320050  RH  058%=      5-min Rain = 0
KMC5 240106Z 35011KT 13/05 A3005 RMK A01 T01320050  RH  057%=      5-min Rain = 0
KMC5 240107Z 35013KT 13/05 A3005 RMK A01 T01320049  RH  057%=      5-min Rain = 0
KMC5 240108Z 35012KT 13/05 A3005 RMK A01 T01320048  RH  057%=      5-min Rain = 0
KMC5 240109Z 35011KT 13/05 A3005 RMK A01 T01320049  RH  057%=      5-min Rain = 0
KMC5 240110Z 35010KT 13/05 A3005 RMK A01 T01320052  RH  059%=      5-min Rain = 0
KMC5 240111Z 35011KT 13/05 A3005 RMK A01 T01310050  RH  058%=      5-min Rain = 0
KMC5 240112Z 35010KT 13/05 A3005 RMK A01 T01310050  RH  058%=      5-min Rain = 0
KMC5 240113Z 35010KT 13/05 A3005 RMK A01 T01310051  RH  058%=      5-min Rain = 0
KMC5 240114Z 35009KT 13/05 A3005 RMK A01 T01310050  RH  058%=      5-min Rain = 0
KMC5 240115Z 36011KT 13/05 A3005 RMK A01 T01310050  RH  058%=      5-min Rain = 0
KMC5 240116Z 36012KT 13/05 A3005 RMK A01 T01310046  RH  057%=      5-min Rain = 0
KMC5 240117Z 36012KT 13/05 A3005 RMK A01 T01310045  RH  056%=      5-min Rain = 0
KMC5 240118Z 36011KT 13/05 A3005 RMK A01 T01300046  RH  057%=      5-min Rain = 0
KMC5 240119Z 36011KT 13/05 A3005 RMK A01 T01300047  RH  057%=      5-min Rain = 0
KMC5 240120Z 36011KT 13/05 A3005 RMK A01 T01300045  RH  056%=      5-min Rain = 0
KMC5 240121Z 35010KT 13/05 A3005 RMK A01 T01300046  RH  057%=      5-min Rain = 0
KMC5 240122Z 36010KT 13/05 A3005 RMK A01 T01300048  RH  058%=      5-min Rain = 0
KMC5 240123Z 36010KT 13/05 A3005 RMK A01 T01300047  RH  057%=      5-min Rain = 0
KMC5 240124Z 36009KT 13/05 A3005 RMK A01 T01300049  RH  058%=      5-min Rain = 0
KMC5 240125Z 00010KT 13/05 A3005 RMK A01 T01300049  RH  058%=      5-min Rain = 0
KMC5 240126Z 36010KT 13/05 A3005 RMK A01 T01290047  RH  057%=      5-min Rain = 0
KMC5 240127Z 00010KT 13/05 A3005 RMK A01 T01290046  RH  057%=      5-min Rain = 0
KMC5 240128Z 00009KT 13/05 A3005 RMK A01 T01290048  RH  058%=      5-min Rain = 0
KMC5 240129Z 00010KT 13/05 A3005 RMK A01 T01290048  RH  058%=      5-min Rain = 0
KMC5 240130Z 00009KT 13/05 A3005 RMK A01 T01290047  RH  057%=      5-min Rain = 0
KMC5 240131Z 00009KT 13/05 A3005 RMK A01 T01290048  RH  058%=      5-min Rain = 0
KMC5 240132Z 00010KT 13/05 A3005 RMK A01 T01290046  RH  057%=      5-min Rain = 0
KMC5 240133Z 01008KT 13/05 A3005 RMK A01 T01290047  RH  058%=      5-min Rain = 0
KMC5 240134Z 00008KT 13/05 A3005 RMK A01 T01280050  RH  059%=      5-min Rain = 0
KMC5 240135Z 00008KT 13/05 A3005 RMK A01 T01280049  RH  059%=      5-min Rain = 0
KMC5 240136Z 00009KT 13/05 A3005 RMK A01 T01280049  RH  059%=      5-min Rain = 0
KMC5 240137Z 01008KT 13/05 A3005 RMK A01 T01280050  RH  059%=      5-min Rain = 0
KMC5 240138Z 01008KT 13/05 A3005 RMK A01 T01280051  RH  059%=      5-min Rain = 0
KMC5 240139Z 01008KT 13/05 A3005 RMK A01 T01270050  RH  059%=      5-min Rain = 0
KMC5 240140Z 01007KT 13/05 A3005 RMK A01 T01270051  RH  060%=      5-min Rain = 0
KMC5 240141Z 01007KT 13/05 A3005 RMK A01 T01270051  RH  060%=      5-min Rain = 0
KMC5 240142Z 01007KT 13/05 A3005 RMK A01 T01270051  RH  060%=      5-min Rain = 0
KMC5 240143Z 01007KT 13/05 A3005 RMK A01 T01270051  RH  060%=      5-min Rain = 0
KMC5 240144Z 02007KT 13/05 A3005 RMK A01 T01270050  RH  060%=      5-min Rain = 0
KMC5 240145Z 01008KT 13/05 A3005 RMK A01 T01270048  RH  059%=      5-min Rain = 0
KMC5 240146Z 02007KT 13/05 A3005 RMK A01 T01270048  RH  058%=      5-min Rain = 0
KMC5 240147Z 02007KT 13/05 A3005 RMK A01 T01270050  RH  059%=      5-min Rain = 0
KMC5 240148Z 02007KT 13/05 A3005 RMK A01 T01270049  RH  059%=      5-min Rain = 0
KMC5 240149Z 02007KT 13/05 A3005 RMK A01 T01260049  RH  059%=      5-min Rain = 0
KMC5 240150Z 02006KT 13/05 A3005 RMK A01 T01270047  RH  058%=      5-min Rain = 0
KMC5 240151Z 02006KT 13/05 A3005 RMK A01 T01270048  RH  059%=      5-min Rain = 0
KMC5 240152Z 02006KT 13/05 A3006 RMK A01 T01270050  RH  059%=      5-min Rain = 0
KMC5 240153Z 03006KT 13/05 A3006 RMK A01 T01270049  RH  059%=      5-min Rain = 0
KMC5 240154Z 03006KT 13/05 A3006 RMK A01 T01270049  RH  059%=      5-min Rain = 0
KMC5 240155Z 03005KT 13/05 A3006 RMK A01 T01270051  RH  060%=      5-min Rain = 0
KMC5 240156Z 02006KT 13/05 A3006 RMK A01 T01260051  RH  060%=      5-min Rain = 0
KMC5 240157Z 03006KT 13/05 A3006 RMK A01 T01260050  RH  060%=      5-min Rain = 0
KMC5 240158Z 03006KT 13/05 A3006 RMK A01 T01260050  RH  060%=      5-min Rain = 0
KMC5 240159Z 03006KT 13/05 A3006 RMK A01 T01260051  RH  060%=      5-min Rain = 0
KMC5 240200Z 02007KT 13/05 A3006 RMK A01 T01260048  RH  059%=      5-min Rain = 0
KMC5 240201Z 03006KT 13/05 A3006 RMK A01 T01260049  RH  059%=      5-min Rain = 0
KMC5 240202Z 03007KT 13/05 A3006 RMK A01 T01260050  RH  060%=      5-min Rain = 0
KMC5 240203Z 03006KT 13/05 A3006 RMK A01 T01260047  RH  058%=      5-min Rain = 0
KMC5 240204Z 03006KT 13/05 A3006 RMK A01 T01260050  RH  060%=      5-min Rain = 0
KMC5 240205Z 03005KT 13/05 A3006 RMK A01 T01260050  RH  060%=      5-min Rain = 0
KMC5 240206Z 04006KT 13/05 A3006 RMK A01 T01260051  RH  060%=      5-min Rain = 0
KMC5 240207Z 04006KT 13/05 A3006 RMK A01 T01260050  RH  060%=      5-min Rain = 0
KMC5 240208Z 04005KT 13/05 A3006 RMK A01 T01260051  RH  060%=      5-min Rain = 0
KMC5 240209Z 04005KT 13/05 A3006 RMK A01 T01260053  RH  061%=      5-min Rain = 0
KMC5 240210Z 04006KT 13/05 A3006 RMK A01 T01260054  RH  061%=      5-min Rain = 0
KMC5 240211Z 04006KT 13/05 A3006 RMK A01 T01250052  RH  061%=      5-min Rain = 0
KMC5 240212Z 04005KT 13/05 A3006 RMK A01 T01250051  RH  061%=      5-min Rain = 0
KMC5 240213Z 03006KT 13/05 A3006 RMK A01 T01250051  RH  061%=      5-min Rain = 0
KMC5 240214Z 04005KT 13/05 A3006 RMK A01 T01250053  RH  061%=      5-min Rain = 0
KMC5 240215Z 03006KT 13/05 A3006 RMK A01 T01250053  RH  061%=      5-min Rain = 0
KMC5 240216Z 03006KT 13/05 A3006 RMK A01 T01250053  RH  061%=      5-min Rain = 0
KMC5 240217Z 03007KT 13/05 A3006 RMK A01 T01250046  RH  058%=      5-min Rain = 0
KMC5 240218Z 03008KT 13/05 A3006 RMK A01 T01250047  RH  059%=      5-min Rain = 0
KMC5 240219Z 03007KT 13/04 A3006 RMK A01 T01260043  RH  057%=      5-min Rain = 0
KMC5 240220Z 03006KT 13/05 A3006 RMK A01 T01260047  RH  059%=      5-min Rain = 0
KMC5 240221Z 03006KT 13/05 A3006 RMK A01 T01260052  RH  061%=      5-min Rain = 0
KMC5 240222Z 03007KT 13/05 A3006 RMK A01 T01250050  RH  060%=      5-min Rain = 0
KMC5 240223Z 02006KT 13/05 A3006 RMK A01 T01250050  RH  060%=      5-min Rain = 0
KMC5 240224Z 02007KT 13/05 A3006 RMK A01 T01250051  RH  061%=      5-min Rain = 0
KMC5 240225Z 03006KT 13/05 A3006 RMK A01 T01250050  RH  060%=      5-min Rain = 0
KMC5 240226Z 02007KT 13/05 A3006 RMK A01 T01250054  RH  062%=      5-min Rain = 0
KMC5 240227Z 02007KT 13/05 A3006 RMK A01 T01260052  RH  061%=      5-min Rain = 0
KMC5 240228Z 02007KT 13/05 A3006 RMK A01 T01260049  RH  060%=      5-min Rain = 0
KMC5 240229Z 03007KT 13/05 A3006 RMK A01 T01250050  RH  060%=      5-min Rain = 0
KMC5 240230Z 02007KT 13/05 A3006 RMK A01 T01250050  RH  060%=      5-min Rain = 0
KMC5 240231Z 02007KT 12/05 A3006 RMK A01 T01240049  RH  060%=      5-min Rain = 0
KMC5 240232Z 01007KT 12/05 A3006 RMK A01 T01240049  RH  060%=      5-min Rain = 0
KMC5 240233Z 01008KT 12/05 A3006 RMK A01 T01240049  RH  061%=      5-min Rain = 0
KMC5 240234Z 01007KT 12/05 A3006 RMK A01 T01230048  RH  060%=      5-min Rain = 0
KMC5 240235Z 01007KT 12/05 A3006 RMK A01 T01230049  RH  061%=      5-min Rain = 0
KMC5 240236Z 01007KT 12/05 A3006 RMK A01 T01230050  RH  061%=      5-min Rain = 0
KMC5 240237Z 01008KT 12/05 A3006 RMK A01 T01220050  RH  061%=      5-min Rain = 0
KMC5 240238Z 01007KT 12/05 A3006 RMK A01 T01220051  RH  062%=      5-min Rain = 0
KMC5 240239Z 01009KT 12/05 A3006 RMK A01 T01210050  RH  062%=      5-min Rain = 0
KMC5 240240Z 00009KT 12/05 A3006 RMK A01 T01200050  RH  062%=      5-min Rain = 0
KMC5 240241Z 01009KT 12/05 A3006 RMK A01 T01200050  RH  062%=      5-min Rain = 0
KMC5 240242Z 00008KT 12/05 A3006 RMK A01 T01190049  RH  062%=      5-min Rain = 0
KMC5 240243Z 00009KT 12/05 A3006 RMK A01 T01190052  RH  063%=      5-min Rain = 0
KMC5 240244Z 00008KT 12/05 A3006 RMK A01 T01180052  RH  064%=      5-min Rain = 0
KMC5 240245Z 00009KT 12/05 A3006 RMK A01 T01170053  RH  064%=      5-min Rain = 0
KMC5 240246Z 00008KT 12/05 A3006 RMK A01 T01160053  RH  065%=      5-min Rain = 0
KMC5 240247Z 01008KT 12/05 A3006 RMK A01 T01160053  RH  065%=      5-min Rain = 0
KMC5 240248Z 00008KT 12/05 A3006 RMK A01 T01150054  RH  066%=      5-min Rain = 0
KMC5 240249Z 00009KT 11/05 A3006 RMK A01 T01140054  RH  066%=      5-min Rain = 0
KMC5 240250Z 00009KT 11/05 A3006 RMK A01 T01140054  RH  067%=      5-min Rain = 0
KMC5 240251Z 00010KT 11/05 A3006 RMK A01 T01130053  RH  067%=      5-min Rain = 0
KMC5 240252Z 00010KT 11/05 A3006 RMK A01 T01130053  RH  067%=      5-min Rain = 0
KMC5 240253Z 00009KT 11/05 A3006 RMK A01 T01130054  RH  067%=      5-min Rain = 0
KMC5 240254Z 36009KT 11/06 A3006 RMK A01 T01120055  RH  068%=      5-min Rain = 0
KMC5 240255Z 36009KT 11/06 A3006 RMK A01 T01110055  RH  068%=      5-min Rain = 0
KMC5 240256Z 35009KT 11/06 A3006 RMK A01 T01100055  RH  069%=      5-min Rain = 0
KMC5 240257Z 36009KT 11/06 A3006 RMK A01 T01090056  RH  070%=      5-min Rain = 0
KMC5 240258Z 35008KT 11/06 A3006 RMK A01 T01080056  RH  070%=      5-min Rain = 0
KMC5 240259Z 35009KT 11/06 A3006 RMK A01 T01080057  RH  071%=      5-min Rain = 0
KMC5 240300Z 35009KT 11/06 A3006 RMK A01 T01070057  RH  071%=      5-min Rain = 0
KMC5 240301Z 35009KT 11/06 A3006 RMK A01 T01070057  RH  071%=      5-min Rain = 0
KMC5 240302Z 35008KT 11/06 A3006 RMK A01 T01070057  RH  071%=      5-min Rain = 0
KMC5 240303Z 35009KT 11/06 A3006 RMK A01 T01070056  RH  071%=      5-min Rain = 0
KMC5 240304Z 35009KT 11/06 A3006 RMK A01 T01070056  RH  071%=      5-min Rain = 0
KMC5 240305Z 35009KT 11/06 A3006 RMK A01 T01060056  RH  071%=      5-min Rain = 0
KMC5 240306Z 36009KT 11/06 A3006 RMK A01 T01060056  RH  071%=      5-min Rain = 0
KMC5 240307Z 35010KT 11/06 A3006 RMK A01 T01050055  RH  071%=      5-min Rain = 0
KMC5 240308Z 35010KT 11/06 A3006 RMK A01 T01050055  RH  071%=      5-min Rain = 0
KMC5 240309Z 36009KT 11/06 A3006 RMK A01 T01050055  RH  071%=      5-min Rain = 0
KMC5 240310Z 36010KT 11/06 A3006 RMK A01 T01050055  RH  071%=      5-min Rain = 0
KMC5 240311Z 36009KT 10/06 A3006 RMK A01 T01040055  RH  071%=      5-min Rain = 0
KMC5 240312Z 36010KT 10/06 A3006 RMK A01 T01040055  RH  072%=      5-min Rain = 0
KMC5 240313Z 36009KT 10/06 A3006 RMK A01 T01030055  RH  072%=      5-min Rain = 0
KMC5 240314Z 35009KT 10/05 A3006 RMK A01 T01030054  RH  072%=      5-min Rain = 0
KMC5 240315Z 36009KT 10/06 A3006 RMK A01 T01030055  RH  072%=      5-min Rain = 0
KMC5 240316Z 36009KT 10/05 A3006 RMK A01 T01020054  RH  072%=      5-min Rain = 0
KMC5 240317Z 36010KT 10/05 A3006 RMK A01 T01020053  RH  072%=      5-min Rain = 0
KMC5 240318Z 36009KT 10/05 A3006 RMK A01 T01010052  RH  071%=      5-min Rain = 0
KMC5 240319Z 36009KT 10/05 A3006 RMK A01 T01010053  RH  072%=      5-min Rain = 0
KMC5 240320Z 36009KT 10/05 A3006 RMK A01 T01010053  RH  072%=      5-min Rain = 0
KMC5 240321Z 35009KT 10/05 A3006 RMK A01 T01000052  RH  072%=      5-min Rain = 0
KMC5 240322Z 35009KT 10/05 A3005 RMK A01 T01000053  RH  072%=      5-min Rain = 0
KMC5 240323Z 36009KT 10/05 A3005 RMK A01 T00990053  RH  073%=      5-min Rain = 0
KMC5 240324Z 36009KT 10/05 A3005 RMK A01 T00990053  RH  073%=      5-min Rain = 0
KMC5 240325Z 35009KT 10/05 A3005 RMK A01 T00990053  RH  073%=      5-min Rain = 0
KMC5 240326Z 35009KT 10/05 A3005 RMK A01 T00980053  RH  073%=      5-min Rain = 0
KMC5 240327Z 36009KT 10/05 A3005 RMK A01 T00980053  RH  074%=      5-min Rain = 0
KMC5 240328Z 36009KT 10/05 A3005 RMK A01 T00980053  RH  074%=      5-min Rain = 0
KMC5 240329Z 35009KT 10/05 A3005 RMK A01 T00970052  RH  073%=      5-min Rain = 0
KMC5 240330Z 36009KT 10/05 A3005 RMK A01 T00970052  RH  073%=      5-min Rain = 0
KMC5 240331Z 36008KT 10/05 A3005 RMK A01 T00970052  RH  074%=      5-min Rain = 0
KMC5 240332Z 00008KT 10/05 A3005 RMK A01 T00960052  RH  074%=      5-min Rain = 0
KMC5 240333Z 00007KT 10/05 A3005 RMK A01 T00960052  RH  074%=      5-min Rain = 0
KMC5 240334Z 00008KT 10/05 A3005 RMK A01 T00960052  RH  074%=      5-min Rain = 0
KMC5 240335Z 00008KT 10/05 A3005 RMK A01 T00960052  RH  074%=      5-min Rain = 0
KMC5 240336Z 36007KT 10/05 A3005 RMK A01 T00960051  RH  074%=      5-min Rain = 0
KMC5 240337Z 36007KT 10/05 A3005 RMK A01 T00960051  RH  074%=      5-min Rain = 0
KMC5 240338Z 36008KT 10/05 A3005 RMK A01 T00950051  RH  074%=      5-min Rain = 0
KMC5 240339Z 36008KT 10/05 A3005 RMK A01 T00950050  RH  074%=      5-min Rain = 0
KMC5 240340Z 35008KT 10/05 A3005 RMK A01 T00950050  RH  073%=      5-min Rain = 0
KMC5 240341Z 35008KT 10/05 A3005 RMK A01 T00950050  RH  073%=      5-min Rain = 0
KMC5 240342Z 34008KT 10/05 A3005 RMK A01 T00950051  RH  074%=      5-min Rain = 0
KMC5 240343Z 34009KT 09/05 A3005 RMK A01 T00940051  RH  075%=      5-min Rain = 0
KMC5 240344Z 35009KT 09/05 A3005 RMK A01 T00940052  RH  075%=      5-min Rain = 0
KMC5 240345Z 34008KT 09/05 A3005 RMK A01 T00930051  RH  075%=      5-min Rain = 0
KMC5 240346Z 34009KT 09/05 A3005 RMK A01 T00930052  RH  075%=      5-min Rain = 0
KMC5 240347Z 34009KT 09/05 A3005 RMK A01 T00930052  RH  076%=      5-min Rain = 0
KMC5 240348Z 34009KT 09/05 A3005 RMK A01 T00920052  RH  076%=      5-min Rain = 0
KMC5 240349Z 34009KT 09/05 A3005 RMK A01 T00910051  RH  076%=      5-min Rain = 0
KMC5 240350Z 34009KT 09/05 A3006 RMK A01 T00920051  RH  076%=      5-min Rain = 0
KMC5 240351Z 34008KT 09/05 A3006 RMK A01 T00910051  RH  076%=      5-min Rain = 0
KMC5 240352Z 34008KT 09/05 A3006 RMK A01 T00910051  RH  076%=      5-min Rain = 0
KMC5 240353Z 34009KT 09/05 A3005 RMK A01 T00910051  RH  076%=      5-min Rain = 0
KMC5 240354Z 34009KT 09/05 A3005 RMK A01 T00910051  RH  076%=      5-min Rain = 0
KMC5 240355Z 34009KT 09/05 A3005 RMK A01 T00900051  RH  077%=      5-min Rain = 0
KMC5 240356Z 34009KT 09/05 A3005 RMK A01 T00900051  RH  077%=      5-min Rain = 0
KMC5 240357Z 34009KT 09/05 A3005 RMK A01 T00900051  RH  077%=      5-min Rain = 0
KMC5 240358Z 35008KT 09/05 A3005 RMK A01 T00900051  RH  077%=      5-min Rain = 0
KMC5 240359Z 35008KT 09/05 A3006 RMK A01 T00890052  RH  077%=      5-min Rain = 0
KMC5 240400Z 35009KT 09/05 A3006 RMK A01 T00890051  RH  077%=      5-min Rain = 0
KMC5 240401Z 35008KT 09/05 A3006 RMK A01 T00890052  RH  077%=      5-min Rain = 0
KMC5 240402Z 34008KT 09/05 A3006 RMK A01 T00880052  RH  078%=      5-min Rain = 0
KMC5 240403Z 35008KT 09/05 A3006 RMK A01 T00880052  RH  078%=      5-min Rain = 0
KMC5 240404Z 35009KT 09/05 A3006 RMK A01 T00880052  RH  078%=      5-min Rain = 0
KMC5 240405Z 35008KT 09/05 A3006 RMK A01 T00880052  RH  078%=      5-min Rain = 0
KMC5 240406Z 34009KT 09/05 A3006 RMK A01 T00870052  RH  078%=      5-min Rain = 0
KMC5 240407Z 34009KT 09/05 A3006 RMK A01 T00870052  RH  079%=      5-min Rain = 0
KMC5 240408Z 34009KT 09/05 A3006 RMK A01 T00870052  RH  079%=      5-min Rain = 0
KMC5 240409Z 34010KT 09/05 A3006 RMK A01 T00870053  RH  079%=      5-min Rain = 0
KMC5 240410Z 34010KT 09/05 A3005 RMK A01 T00860053  RH  080%=      5-min Rain = 0
KMC5 240411Z 34010KT 09/05 A3005 RMK A01 T00860053  RH  080%=      5-min Rain = 0
KMC5 240412Z 34010KT 09/05 A3005 RMK A01 T00860053  RH  080%=      5-min Rain = 0
KMC5 240413Z 34011KT 09/05 A3005 RMK A01 T00850053  RH  080%=      5-min Rain = 0
KMC5 240414Z 34011KT 09/05 A3005 RMK A01 T00850053  RH  080%=      5-min Rain = 0
KMC5 240415Z 34011KT 09/05 A3005 RMK A01 T00850053  RH  080%=      5-min Rain = 0
KMC5 240416Z 34011KT 09/05 A3005 RMK A01 T00850053  RH  080%=      5-min Rain = 0
KMC5 240417Z 34011KT 09/05 A3005 RMK A01 T00850053  RH  080%=      5-min Rain = 0
KMC5 240418Z 34011KT 09/05 A3005 RMK A01 T00850053  RH  081%=      5-min Rain = 0
KMC5 240419Z 34011KT 08/05 A3005 RMK A01 T00840053  RH  081%=      5-min Rain = 0
KMC5 240420Z 34011KT 09/05 A3004 RMK A01 T00850053  RH  081%=      5-min Rain = 0
KMC5 240421Z 34011KT 08/05 A3004 RMK A01 T00840052  RH  081%=      5-min Rain = 0
KMC5 240422Z 34011KT 08/05 A3004 RMK A01 T00840052  RH  080%=      5-min Rain = 0
KMC5 240423Z 34011KT 08/05 A3004 RMK A01 T00840052  RH  081%=      5-min Rain = 0
KMC5 240424Z 33012KT 08/05 A3004 RMK A01 T00840052  RH  080%=      5-min Rain = 0
KMC5 240425Z 33012KT 08/05 A3004 RMK A01 T00840052  RH  080%=      5-min Rain = 0
KMC5 240426Z 33011KT 08/05 A3004 RMK A01 T00840052  RH  080%=      5-min Rain = 0
KMC5 240427Z 33012KT 08/05 A3004 RMK A01 T00830052  RH  081%=      5-min Rain = 0
KMC5 240428Z 33012KT 08/05 A3003 RMK A01 T00830052  RH  081%=      5-min Rain = 0
KMC5 240429Z 33012KT 08/05 A3003 RMK A01 T00820052  RH  081%=      5-min Rain = 0
KMC5 240430Z 33013KT 08/05 A3003 RMK A01 T00820052  RH  081%=      5-min Rain = 0
KMC5 240431Z 33013KT 08/05 A3003 RMK A01 T00820053  RH  082%=      5-min Rain = 0
KMC5 240432Z 33012KT 08/05 A3003 RMK A01 T00810052  RH  082%=      5-min Rain = 0
KMC5 240433Z 33013KT 08/05 A3003 RMK A01 T00810053  RH  082%=      5-min Rain = 0
KMC5 240434Z 33012KT 08/05 A3003 RMK A01 T00810052  RH  082%=      5-min Rain = 0
KMC5 240435Z 33013KT 08/05 A3002 RMK A01 T00810053  RH  082%=      5-min Rain = 0
KMC5 240436Z 33012KT 08/05 A3003 RMK A01 T00800052  RH  083%=      5-min Rain = 0
KMC5 240437Z 33012KT 08/05 A3003 RMK A01 T00800053  RH  083%=      5-min Rain = 0
KMC5 240438Z 33012KT 08/05 A3003 RMK A01 T00800052  RH  083%=      5-min Rain = 0
KMC5 240439Z 33012KT 08/05 A3003 RMK A01 T00800053  RH  083%=      5-min Rain = 0
KMC5 240440Z 33011KT 08/05 A3003 RMK A01 T00800053  RH  083%=      5-min Rain = 0
KMC5 240441Z 33011KT 08/05 A3003 RMK A01 T00800053  RH  083%=      5-min Rain = 0
KMC5 240442Z 33011KT 08/05 A3004 RMK A01 T00800052  RH  083%=      5-min Rain = 0
KMC5 240443Z 33010KT 08/05 A3004 RMK A01 T00800052  RH  082%=      5-min Rain = 0
KMC5 240444Z 33010KT 08/05 A3004 RMK A01 T00810052  RH  082%=      5-min Rain = 0
KMC5 240445Z 33009KT 08/05 A3004 RMK A01 T00810051  RH  082%=      5-min Rain = 0
KMC5 240446Z 33009KT 08/05 A3004 RMK A01 T00810052  RH  082%=      5-min Rain = 0
KMC5 240447Z 33009KT 08/05 A3004 RMK A01 T00810052  RH  082%=      5-min Rain = 0
KMC5 240448Z 33009KT 08/05 A3005 RMK A01 T00810052  RH  082%=      5-min Rain = 0
KMC5 240449Z 33008KT 08/05 A3005 RMK A01 T00810052  RH  082%=      5-min Rain = 0
KMC5 240450Z 33008KT 08/05 A3005 RMK A01 T00810051  RH  082%=      5-min Rain = 0
KMC5 240451Z 33007KT 08/05 A3005 RMK A01 T00810051  RH  081%=      5-min Rain = 0
KMC5 240452Z 33007KT 08/05 A3005 RMK A01 T00800051  RH  082%=      5-min Rain = 0
KMC5 240453Z 32007KT 08/05 A3006 RMK A01 T00800050  RH  082%=      5-min Rain = 0
KMC5 240454Z 32007KT 08/05 A3006 RMK A01 T00800050  RH  081%=      5-min Rain = 0
KMC5 240455Z 32006KT 08/05 A3006 RMK A01 T00800050  RH  082%=      5-min Rain = 0
KMC5 240456Z 32005KT 08/05 A3006 RMK A01 T00800050  RH  082%=      5-min Rain = 0
KMC5 240457Z 32006KT 08/05 A3006 RMK A01 T00790050  RH  082%=      5-min Rain = 0
KMC5 240458Z 32006KT 08/05 A3007 RMK A01 T00790050  RH  082%=      5-min Rain = 0
KMC5 240459Z 32006KT 08/05 A3007 RMK A01 T00780050  RH  082%=      5-min Rain = 0

Page generated in 0.1413 seconds.